Wetterdaten: Samstag, 16.09.2017
Datum Zeit Temp. Aussen Temp. o. S. +5cm Feuchte Auss BlattFeu 1 Luftdruck Regen Sonnenschein Regendauer Solar Windben Empfang
16.09.2017 00:00 9,6 C 8,9 C 7,2 C 90 % 0 lf 1010,2 hPa 0,0 l/m 0 min 0 min 0 W/m 8,4 km/h (2 Bft) 97,87 %
16.09.2017 00:02 9,6 C 8,9 C 7,2 C 90 % 0 lf 1010,2 hPa 0,0 l/m 0 min 0 min 0 W/m 8,4 km/h (2 Bft) 95,45 %
16.09.2017 00:04 9,5 C 8,3 C 7,2 C 90 % 0 lf 1010,2 hPa 0,0 l/m 0 min 0 min 0 W/m 10,5 km/h (2 Bft) 97,87 %
16.09.2017 00:07 9,5 C 8,3 C 7,2 C 90 % 0 lf 1010,2 hPa 0,0 l/m 0 min 0 min 0 W/m 8,4 km/h (2 Bft) 95,52 %
16.09.2017 00:08 9,5 C 8,3 C 7,2 C 90 % 0 lf 1010,2 hPa 0,0 l/m 0 min 0 min 0 W/m 6,3 km/h (2 Bft) 100,00 %
16.09.2017 00:10 9,4 C 8,3 C 7,2 C 90 % 0 lf 1010,3 hPa 0,0 l/m 0 min 0 min 0 W/m 8,4 km/h (2 Bft) 100,00 %
16.09.2017 00:12 9,4 C 8,3 C 7,2 C 90 % 0 lf 1010,2 hPa 0,0 l/m 0 min 0 min 2 W/m 8,4 km/h (2 Bft) 100,00 %
16.09.2017 00:14 9,4 C 8,3 C 7,2 C 90 % 0 lf 1010,2 hPa 0,0 l/m 0 min 0 min 0 W/m 8,4 km/h (2 Bft) 97,87 %
16.09.2017 00:16 9,4 C 8,3 C 7,2 C 90 % 0 lf 1010,2 hPa 0,0 l/m 0 min 0 min 0 W/m 6,3 km/h (2 Bft) 95,74 %
16.09.2017 00:18 9,4 C 8,3 C 7,2 C 90 % 0 lf 1010,3 hPa 0,0 l/m 0 min 0 min 0 W/m 8,4 km/h (2 Bft) 100,00 %
16.09.2017 00:20 9,3 C 8,3 C 7,2 C 90 % 0 lf 1010,2 hPa 0,0 l/m 0 min 0 min 3 W/m 4,2 km/h (1 Bft) 95,74 %
16.09.2017 00:22 9,3 C 8,3 C 7,2 C 90 % 0 lf 1010,2 hPa 0,0 l/m 0 min 0 min 5 W/m 8,4 km/h (2 Bft) 95,65 %
16.09.2017 00:24 9,3 C 8,3 C 7,2 C 91 % 0 lf 1010,2 hPa 0,0 l/m 0 min 0 min 5 W/m 6,3 km/h (2 Bft) 95,74 %
16.09.2017 00:26 9,3 C 8,3 C 7,2 C 91 % 0 lf 1010,2 hPa 0,0 l/m 0 min 0 min 5 W/m 8,4 km/h (2 Bft) 91,49 %
16.09.2017 00:28 9,3 C 8,3 C 7,2 C 91 % 0 lf 1010,2 hPa 0,0 l/m 0 min 0 min 3 W/m 8,4 km/h (2 Bft) 91,49 %
16.09.2017 00:30 9,3 C 8,3 C 7,2 C 91 % 0 lf 1010,2 hPa 0,0 l/m 0 min 0 min 0 W/m 12,6 km/h (3 Bft) 91,49 %
16.09.2017 00:32 9,2 C 8,3 C 7,2 C 91 % 0 lf 1010,2 hPa 0,0 l/m 0 min 0 min 0 W/m 8,4 km/h (2 Bft) 89,36 %
16.09.2017 00:34 9,2 C 8,3 C 7,2 C 91 % 0 lf 1010,1 hPa 0,0 l/m 0 min 0 min 0 W/m 6,3 km/h (2 Bft) 93,48 %
16.09.2017 00:36 9,2 C 8,3 C 7,2 C 91 % 0 lf 1010,1 hPa 0,0 l/m 0 min 0 min 0 W/m 8,4 km/h (2 Bft) 91,49 %
16.09.2017 00:38 9,2 C 8,3 C 7,2 C 91 % 0 lf 1010,1 hPa 0,0 l/m 0 min 0 min 0 W/m 6,3 km/h (2 Bft) 89,36 %
16.09.2017 00:40 9,2 C 8,3 C 7,2 C 91 % 0 lf 1010,1 hPa 0,0 l/m 0 min 0 min 5 W/m 8,4 km/h (2 Bft) 91,49 %
16.09.2017 00:42 9,1 C 8,3 C 7,2 C 91 % 0 lf 1010,1 hPa 0,0 l/m 0 min 0 min 0 W/m 8,4 km/h (2 Bft) 93,62 %
16.09.2017 00:44 9,1 C 8,3 C 7,2 C 91 % 0 lf 1010,1 hPa 0,0 l/m 0 min 0 min 5 W/m 6,3 km/h (2 Bft) 91,49 %
16.09.2017 00:46 9,1 C 8,3 C 7,2 C 91 % 0 lf 1010,1 hPa 0,0 l/m 0 min 0 min 5 W/m 6,3 km/h (2 Bft) 93,48 %
16.09.2017 00:48 9,1 C 7,8 C 6,7 C 91 % 0 lf 1010,1 hPa 0,0 l/m 0 min 0 min 2 W/m 6,3 km/h (2 Bft) 95,74 %
16.09.2017 00:50 9,1 C 8,3 C 6,7 C 91 % 0 lf 1010,0 hPa 0,0 l/m 0 min 0 min 2 W/m 6,3 km/h (2 Bft) 91,49 %
16.09.2017 00:52 9,1 C 7,8 C 6,7 C 91 % 0 lf 1010,0 hPa 0,0 l/m 0 min 0 min 5 W/m 6,3 km/h (2 Bft) 93,62 %
16.09.2017 00:54 9,1 C 7,8 C 6,7 C 91 % 0 lf 1010,1 hPa 0,0 l/m 0 min 0 min 5 W/m 6,3 km/h (2 Bft) 91,49 %
16.09.2017 00:56 9,0 C 8,3 C 6,7 C 91 % 0 lf 1010,1 hPa 0,0 l/m 0 min 0 min 5 W/m 8,4 km/h (2 Bft) 93,62 %
16.09.2017 00:58 9,0 C 8,3 C 7,2 C 91 % 0 lf 1010,1 hPa 0,0 l/m 0 min 0 min 3 W/m 8,4 km/h (2 Bft) 95,65 %
16.09.2017 01:00 9,0 C 8,3 C 7,2 C 91 % 0 lf 1010,0 hPa 0,0 l/m 0 min 0 min 5 W/m 6,3 km/h (2 Bft) 95,74 %
16.09.2017 01:02 9,0 C 8,3 C 7,2 C 92 % 0 lf 1010,0 hPa 0,0 l/m 0 min 0 min 5 W/m 6,3 km/h (2 Bft) 93,62 %
16.09.2017 01:04 9,0 C 8,3 C 7,2 C 92 % 0 lf 1010,1 hPa 0,0 l/m 0 min 0 min 0 W/m 8,4 km/h (2 Bft) 95,74 %
16.09.2017 01:06 8,9 C 8,3 C 6,7 C 92 % 0 lf 1010,1 hPa 0,0 l/m 0 min 0 min 0 W/m 8,4 km/h (2 Bft) 95,74 %
16.09.2017 01:08 8,9 C 8,3 C 6,7 C 92 % 0 lf 1010,0 hPa 0,0 l/m 0 min 0 min 0 W/m 10,5 km/h (2 Bft) 95,74 %
16.09.2017 01:10 8,9 C 8,3 C 7,2 C 92 % 0 lf 1010,1 hPa 0,0 l/m 0 min 0 min 0 W/m 12,6 km/h (3 Bft) 97,83 %
16.09.2017 01:12 8,9 C 8,3 C 7,2 C 92 % 0 lf 1010,0 hPa 0,0 l/m 0 min 0 min 0 W/m 8,4 km/h (2 Bft) 93,62 %
16.09.2017 01:14 8,9 C 8,3 C 7,2 C 92 % 0 lf 1010,0 hPa 0,0 l/m 0 min 0 min 0 W/m 8,4 km/h (2 Bft) 95,74 %
16.09.2017 01:16 8,9 C 8,3 C 7,2 C 92 % 0 lf 1010,0 hPa 0,0 l/m 0 min 0 min 0 W/m 10,5 km/h (2 Bft) 97,87 %
16.09.2017 01:18 8,9 C 8,3 C 7,2 C 92 % 0 lf 1010,0 hPa 0,0 l/m 0 min 0 min 0 W/m 12,6 km/h (3 Bft) 97,87 %
16.09.2017 01:20 8,9 C 8,3 C 7,2 C 92 % 0 lf 1009,9 hPa 0,0 l/m 0 min 0 min 0 W/m 10,5 km/h (2 Bft) 95,74 %
16.09.2017 01:22 8,9 C 8,3 C 7,2 C 92 % 0 lf 1009,9 hPa 0,0 l/m 0 min 0 min 0 W/m 12,6 km/h (3 Bft) 95,65 %
16.09.2017 01:24 8,9 C 8,3 C 7,2 C 92 % 0 lf 1009,9 hPa 0,0 l/m 0 min 0 min 3 W/m 10,5 km/h (2 Bft) 97,87 %
16.09.2017 01:26 8,9 C 8,3 C 7,2 C 92 % 0 lf 1009,9 hPa 0,0 l/m 0 min 0 min 0 W/m 12,6 km/h (3 Bft) 95,74 %
16.09.2017 01:28 8,9 C 8,3 C 7,2 C 93 % 0 lf 1009,9 hPa 0,0 l/m 0 min 0 min 4 W/m 12,6 km/h (3 Bft) 95,74 %
16.09.2017 01:30 8,9 C 8,3 C 7,2 C 93 % 0 lf 1009,9 hPa 0,0 l/m 0 min 0 min 3 W/m 8,4 km/h (2 Bft) 97,87 %
16.09.2017 01:32 8,9 C 8,3 C 7,2 C 93 % 0 lf 1009,8 hPa 0,0 l/m 0 min 0 min 4 W/m 10,5 km/h (2 Bft) 97,83 %
16.09.2017 01:34 8,9 C 8,3 C 7,2 C 93 % 0 lf 1009,9 hPa 0,0 l/m 0 min 0 min 3 W/m 12,6 km/h (3 Bft) 97,87 %
16.09.2017 01:36 8,9 C 8,3 C 7,2 C 93 % 0 lf 1009,9 hPa 0,0 l/m 0 min 0 min 0 W/m 10,5 km/h (2 Bft) 100,00 %
16.09.2017 01:38 8,9 C 8,3 C 7,2 C 93 % 0 lf 1009,9 hPa 0,0 l/m 0 min 0 min 5 W/m 10,5 km/h (2 Bft) 97,87 %
16.09.2017 01:40 9,0 C 8,3 C 7,2 C 93 % 0 lf 1009,9 hPa 0,0 l/m 0 min 0 min 5 W/m 10,5 km/h (2 Bft) 95,74 %
16.09.2017 01:42 8,9 C 8,3 C 7,2 C 93 % 0 lf 1009,8 hPa 0,0 l/m 0 min 0 min 0 W/m 10,5 km/h (2 Bft) 97,87 %
16.09.2017 01:44 8,9 C 8,3 C 7,2 C 93 % 0 lf 1009,9 hPa 0,0 l/m 0 min 0 min 0 W/m 8,4 km/h (2 Bft) 97,83 %
16.09.2017 01:46 8,9 C 8,3 C 7,2 C 93 % 0 lf 1009,9 hPa 0,0 l/m 0 min 0 min 0 W/m 6,3 km/h (2 Bft) 100,00 %
16.09.2017 01:48 8,9 C 8,3 C 7,2 C 93 % 0 lf 1009,8 hPa 0,0 l/m 0 min 0 min 0 W/m 8,4 km/h (2 Bft) 97,87 %
16.09.2017 01:50 8,9 C 8,3 C 7,2 C 93 % 0 lf 1009,8 hPa 0,0 l/m 0 min 0 min 0 W/m 12,6 km/h (3 Bft) 97,87 %
16.09.2017 01:52 8,9 C 8,3 C 7,2 C 93 % 0 lf 1009,9 hPa 0,0 l/m 0 min 0 min 0 W/m 8,4 km/h (2 Bft) 95,74 %
16.09.2017 01:54 8,9 C 8,3 C 7,2 C 93 % 0 lf 1009,9 hPa 0,0 l/m 0 min 0 min 0 W/m 10,5 km/h (2 Bft) 97,87 %
16.09.2017 01:56 8,9 C 8,3 C 7,2 C 93 % 0 lf 1009,9 hPa 0,0 l/m 0 min 0 min 0 W/m 10,5 km/h (2 Bft) 95,65 %
16.09.2017 01:58 8,9 C 8,3 C 7,2 C 93 % 1 lf 1009,8 hPa 0,0 l/m 0 min 0 min 0 W/m 8,4 km/h (2 Bft) 97,87 %
16.09.2017 02:00 8,9 C 8,3 C 7,2 C 93 % 0 lf 1009,8 hPa 0,0 l/m 0 min 0 min 0 W/m 10,5 km/h (2 Bft) 97,87 %
16.09.2017 02:02 8,9 C 8,3 C 7,2 C 93 % 0 lf 1009,8 hPa 0,0 l/m 0 min 0 min 5 W/m 8,4 km/h (2 Bft) 97,87 %
16.09.2017 02:04 8,9 C 8,3 C 7,2 C 93 % 1 lf 1009,8 hPa 0,0 l/m 0 min 0 min 5 W/m 10,5 km/h (2 Bft) 97,87 %
16.09.2017 02:06 8,9 C 8,3 C 6,7 C 93 % 1 lf 1009,8 hPa 0,0 l/m 0 min 0 min 5 W/m 8,4 km/h (2 Bft) 93,62 %
16.09.2017 02:08 8,8 C 7,8 C 6,7 C 93 % 1 lf 1009,8 hPa 0,0 l/m 0 min 0 min 0 W/m 8,4 km/h (2 Bft) 95,65 %
16.09.2017 02:10 8,8 C 7,8 C 6,7 C 93 % 1 lf 1009,8 hPa 0,0 l/m 0 min 0 min 0 W/m 8,4 km/h (2 Bft) 93,62 %
16.09.2017 02:12 8,8 C 7,8 C 6,7 C 93 % 1 lf 1009,8 hPa 0,0 l/m 0 min 0 min 0 W/m 6,3 km/h (2 Bft) 95,74 %
16.09.2017 02:14 8,8 C 7,8 C 6,7 C 93 % 1 lf 1009,8 hPa 0,0 l/m 0 min 0 min 0 W/m 8,4 km/h (2 Bft) 97,87 %
16.09.2017 02:16 8,8 C 7,8 C 6,7 C 93 % 1 lf 1009,7 hPa 0,0 l/m 0 min 0 min 0 W/m 12,6 km/h (3 Bft) 95,74 %
16.09.2017 02:18 8,8 C 7,8 C 6,7 C 93 % 1 lf 1009,7 hPa 0,0 l/m 0 min 0 min 0 W/m 8,4 km/h (2 Bft) 93,62 %
16.09.2017 02:20 8,8 C 7,8 C 6,7 C 94 % 1 lf 1009,8 hPa 0,0 l/m 0 min 0 min 0 W/m 10,5 km/h (2 Bft) 95,65 %
16.09.2017 02:22 8,8 C 7,8 C 7,2 C 94 % 1 lf 1009,7 hPa 0,0 l/m 0 min 0 min 0 W/m 6,3 km/h (2 Bft) 95,74 %
16.09.2017 02:24 8,8 C 8,3 C 7,2 C 94 % 1 lf 1009,7 hPa 0,0 l/m 0 min 0 min 0 W/m 12,6 km/h (3 Bft) 95,74 %
16.09.2017 02:26 8,8 C 8,3 C 7,2 C 94 % 1 lf 1009,7 hPa 0,0 l/m 0 min 0 min 0 W/m 10,5 km/h (2 Bft) 93,62 %
16.09.2017 02:28 8,8 C 8,3 C 7,2 C 94 % 1 lf 1009,7 hPa 0,0 l/m 0 min 0 min 0 W/m 10,5 km/h (2 Bft) 95,74 %
16.09.2017 02:30 8,8 C 8,3 C 7,2 C 94 % 1 lf 1009,7 hPa 0,0 l/m 0 min 0 min 0 W/m 8,4 km/h (2 Bft) 95,74 %
16.09.2017 02:32 8,8 C 7,8 C 6,7 C 94 % 1 lf 1009,8 hPa 0,0 l/m 0 min 0 min 0 W/m 10,5 km/h (2 Bft) 93,48 %
16.09.2017 02:34 8,7 C 7,8 C 7,2 C 94 % 1 lf 1009,8 hPa 0,0 l/m 0 min 0 min 0 W/m 10,5 km/h (2 Bft) 95,74 %
16.09.2017 02:36 8,7 C 7,8 C 6,7 C 94 % 1 lf 1009,7 hPa 0,0 l/m 0 min 0 min 0 W/m 8,4 km/h (2 Bft) 95,74 %
16.09.2017 02:38 8,7 C 7,8 C 6,7 C 94 % 1 lf 1009,8 hPa 0,0 l/m 0 min 0 min 0 W/m 8,4 km/h (2 Bft) 95,74 %
16.09.2017 02:40 8,7 C 7,8 C 6,7 C 94 % 1 lf 1009,8 hPa 0,0 l/m 0 min 0 min 0 W/m 8,4 km/h (2 Bft) 97,87 %
16.09.2017 02:42 8,7 C 7,8 C 6,7 C 94 % 1 lf 1009,8 hPa 0,0 l/m 0 min 0 min 0 W/m 10,5 km/h (2 Bft) 97,83 %
16.09.2017 02:44 8,7 C 7,8 C 6,7 C 94 % 1 lf 1009,8 hPa 0,0 l/m 0 min 0 min 0 W/m 6,3 km/h (2 Bft) 100,00 %
16.09.2017 02:46 8,7 C 7,8 C 6,7 C 94 % 1 lf 1009,8 hPa 0,0 l/m 0 min 0 min 0 W/m 8,4 km/h (2 Bft) 95,74 %
16.09.2017 02:48 8,7 C 7,8 C 6,7 C 94 % 1 lf 1009,8 hPa 0,0 l/m 0 min 0 min 0 W/m 12,6 km/h (3 Bft) 97,87 %
16.09.2017 02:50 8,7 C 7,8 C 6,7 C 94 % 1 lf 1009,7 hPa 0,0 l/m 0 min 0 min 0 W/m 8,4 km/h (2 Bft) 100,00 %
16.09.2017 02:52 8,7 C 7,8 C 6,7 C 94 % 1 lf 1009,7 hPa 0,0 l/m 0 min 0 min 0 W/m 10,5 km/h (2 Bft) 100,00 %
16.09.2017 02:54 8,6 C 7,8 C 6,7 C 94 % 1 lf 1009,7 hPa 0,0 l/m 0 min 0 min 0 W/m 6,3 km/h (2 Bft) 100,00 %
16.09.2017 02:56 8,6 C 7,8 C 6,7 C 94 % 1 lf 1009,7 hPa 0,0 l/m 0 min 0 min 0 W/m 8,4 km/h (2 Bft) 97,87 %
16.09.2017 02:58 8,6 C 7,8 C 6,7 C 94 % 1 lf 1009,7 hPa 0,0 l/m 0 min 0 min 0 W/m 8,4 km/h (2 Bft) 100,00 %
16.09.2017 03:00 8,6 C 7,8 C 6,7 C 94 % 1 lf 1009,7 hPa 0,0 l/m 0 min 0 min 0 W/m 8,4 km/h (2 Bft) 97,87 %
16.09.2017 03:02 8,6 C 7,8 C 6,7 C 94 % 1 lf 1009,7 hPa 0,0 l/m 0 min 0 min 0 W/m 10,5 km/h (2 Bft) 100,00 %
16.09.2017 03:04 8,6 C 7,8 C 6,7 C 94 % 1 lf 1009,7 hPa 0,0 l/m 0 min 0 min 0 W/m 12,6 km/h (3 Bft) 100,00 %
16.09.2017 03:06 8,6 C 7,8 C 6,7 C 94 % 1 lf 1009,7 hPa 0,0 l/m 0 min 0 min 0 W/m 12,6 km/h (3 Bft) 100,00 %
16.09.2017 03:08 8,5 C 7,8 C 6,7 C 94 % 1 lf 1009,7 hPa 0,0 l/m 0 min 0 min 0 W/m 12,6 km/h (3 Bft) 97,87 %
16.09.2017 03:10 8,5 C 7,8 C 6,7 C 94 % 1 lf 1009,6 hPa 0,0 l/m 0 min 0 min 0 W/m 10,5 km/h (2 Bft) 100,00 %
16.09.2017 03:12 8,5 C 7,8 C 6,7 C 94 % 1 lf 1009,6 hPa 0,0 l/m 0 min 0 min 0 W/m 8,4 km/h (2 Bft) 100,00 %
16.09.2017 03:14 8,5 C 7,8 C 6,7 C 94 % 1 lf 1009,6 hPa 0,0 l/m 0 min 0 min 0 W/m 10,5 km/h (2 Bft) 97,87 %
16.09.2017 03:16 8,5 C 7,8 C 6,7 C 94 % 1 lf 1009,6 hPa 0,0 l/m 0 min 0 min 4 W/m 8,4 km/h (2 Bft) 97,87 %
16.09.2017 03:18 8,5 C 7,8 C 6,7 C 94 % 1 lf 1009,6 hPa 0,0 l/m 0 min 0 min 0 W/m 10,5 km/h (2 Bft) 97,83 %
16.09.2017 03:20 8,4 C 7,8 C 6,7 C 94 % 1 lf 1009,5 hPa 0,0 l/m 0 min 0 min 0 W/m 10,5 km/h (2 Bft) 95,74 %
16.09.2017 03:22 8,4 C 7,8 C 6,7 C 94 % 1 lf 1009,5 hPa 0,0 l/m 0 min 0 min 5 W/m 12,6 km/h (3 Bft) 97,87 %
16.09.2017 03:24 8,4 C 7,8 C 6,7 C 94 % 1 lf 1009,5 hPa 0,0 l/m 0 min 0 min 0 W/m 10,5 km/h (2 Bft) 97,87 %
16.09.2017 03:26 8,4 C 7,8 C 6,7 C 94 % 1 lf 1009,5 hPa 0,0 l/m 0 min 0 min 1 W/m 12,6 km/h (3 Bft) 91,49 %
16.09.2017 03:28 8,4 C 7,8 C 6,7 C 94 % 1 lf 1009,5 hPa 0,0 l/m 0 min 0 min 5 W/m 12,6 km/h (3 Bft) 93,62 %
16.09.2017 03:30 8,4 C 7,8 C 6,7 C 94 % 1 lf 1009,4 hPa 0,0 l/m 0 min 0 min 0 W/m 10,5 km/h (2 Bft) 97,83 %
16.09.2017 03:32 8,4 C 7,8 C 6,7 C 94 % 1 lf 1009,5 hPa 0,0 l/m 0 min 0 min 0 W/m 12,6 km/h (3 Bft) 97,87 %
16.09.2017 03:34 8,4 C 7,8 C 6,7 C 94 % 1 lf 1009,4 hPa 0,0 l/m 0 min 0 min 0 W/m 10,5 km/h (2 Bft) 95,74 %
16.09.2017 03:36 8,4 C 7,8 C 6,7 C 94 % 1 lf 1009,4 hPa 0,0 l/m 0 min 0 min 0 W/m 8,4 km/h (2 Bft) 95,74 %
16.09.2017 03:38 8,4 C 7,8 C 6,7 C 94 % 1 lf 1009,4 hPa 0,0 l/m 0 min 0 min 5 W/m 12,6 km/h (3 Bft) 95,74 %
16.09.2017 03:40 8,4 C 7,8 C 6,7 C 94 % 1 lf 1009,4 hPa 0,0 l/m 0 min 0 min 0 W/m 12,6 km/h (3 Bft) 97,87 %
16.09.2017 03:42 8,3 C 7,8 C 6,7 C 94 % 1 lf 1009,4 hPa 0,0 l/m 0 min 0 min 0 W/m 8,4 km/h (2 Bft) 97,83 %
16.09.2017 03:44 8,3 C 7,8 C 6,7 C 94 % 1 lf 1009,4 hPa 0,0 l/m 0 min 0 min 0 W/m 10,5 km/h (2 Bft) 97,87 %
16.09.2017 03:46 8,3 C 7,8 C 6,7 C 94 % 1 lf 1009,4 hPa 0,0 l/m 0 min 0 min 0 W/m 12,6 km/h (3 Bft) 93,62 %
16.09.2017 03:48 8,3 C 7,8 C 6,7 C 95 % 1 lf 1009,4 hPa 0,0 l/m 0 min 0 min 5 W/m 10,5 km/h (2 Bft) 95,74 %
16.09.2017 03:50 8,3 C 7,8 C 6,7 C 95 % 1 lf 1009,4 hPa 0,0 l/m 0 min 0 min 0 W/m 10,5 km/h (2 Bft) 97,87 %
16.09.2017 03:52 8,3 C 7,8 C 6,7 C 95 % 1 lf 1009,4 hPa 0,0 l/m 0 min 0 min 0 W/m 10,5 km/h (2 Bft) 95,74 %
16.09.2017 03:54 8,3 C 7,8 C 6,7 C 95 % 1 lf 1009,4 hPa 0,0 l/m 0 min 0 min 0 W/m 10,5 km/h (2 Bft) 97,83 %
16.09.2017 03:56 8,3 C 7,8 C 6,7 C 95 % 1 lf 1009,4 hPa 0,0 l/m 0 min 0 min 0 W/m 12,6 km/h (3 Bft) 95,74 %
16.09.2017 03:58 8,3 C 7,8 C 6,7 C 95 % 1 lf 1009,4 hPa 0,0 l/m 0 min 0 min 0 W/m 12,6 km/h (3 Bft) 97,87 %
16.09.2017 04:00 8,3 C 7,8 C 6,7 C 95 % 1 lf 1009,3 hPa 0,0 l/m 0 min 0 min 0 W/m 12,6 km/h (3 Bft) 95,74 %
16.09.2017 04:02 8,3 C 7,8 C 6,7 C 95 % 1 lf 1009,4 hPa 0,0 l/m 0 min 0 min 0 W/m 8,4 km/h (2 Bft) 100,00 %
16.09.2017 04:04 8,3 C 7,8 C 6,7 C 95 % 1 lf 1009,4 hPa 0,0 l/m 0 min 0 min 0 W/m 10,5 km/h (2 Bft) 95,74 %
16.09.2017 04:06 8,3 C 7,8 C 6,7 C 95 % 1 lf 1009,4 hPa 0,0 l/m 0 min 0 min 0 W/m 14,6 km/h (3 Bft) 95,65 %
16.09.2017 04:08 8,3 C 7,8 C 6,7 C 95 % 1 lf 1009,4 hPa 0,0 l/m 0 min 0 min 0 W/m 14,6 km/h (3 Bft) 97,87 %
16.09.2017 04:10 8,3 C 7,8 C 6,7 C 95 % 1 lf 1009,3 hPa 0,0 l/m 0 min 0 min 5 W/m 16,7 km/h (3 Bft) 93,62 %
16.09.2017 04:12 8,3 C 7,8 C 6,7 C 95 % 1 lf 1009,4 hPa 0,0 l/m 0 min 0 min 0 W/m 12,6 km/h (3 Bft) 97,87 %
16.09.2017 04:14 8,3 C 7,8 C 6,7 C 95 % 1 lf 1009,4 hPa 0,0 l/m 0 min 0 min 5 W/m 12,6 km/h (3 Bft) 100,00 %
16.09.2017 04:16 8,3 C 7,8 C 6,7 C 95 % 1 lf 1009,4 hPa 0,0 l/m 0 min 0 min 0 W/m 14,6 km/h (3 Bft) 97,83 %
16.09.2017 04:18 8,3 C 7,8 C 6,7 C 95 % 1 lf 1009,3 hPa 0,0 l/m 0 min 0 min 0 W/m 12,6 km/h (3 Bft) 97,87 %
16.09.2017 04:20 8,3 C 7,8 C 6,7 C 95 % 1 lf 1009,3 hPa 0,0 l/m 0 min 0 min 0 W/m 14,6 km/h (3 Bft) 95,74 %
16.09.2017 04:22 8,3 C 7,8 C 6,7 C 95 % 1 lf 1009,3 hPa 0,0 l/m 0 min 0 min 0 W/m 14,6 km/h (3 Bft) 95,74 %
16.09.2017 04:24 8,3 C 7,8 C 6,7 C 95 % 1 lf 1009,3 hPa 0,0 l/m 0 min 0 min 5 W/m 14,6 km/h (3 Bft) 97,87 %
16.09.2017 04:26 8,3 C 7,8 C 6,7 C 95 % 1 lf 1009,2 hPa 0,0 l/m 0 min 0 min 0 W/m 10,5 km/h (2 Bft) 97,87 %
16.09.2017 04:28 8,3 C 7,8 C 6,7 C 95 % 1 lf 1009,3 hPa 0,0 l/m 0 min 0 min 5 W/m 12,6 km/h (3 Bft) 95,65 %
16.09.2017 04:30 8,3 C 7,8 C 6,7 C 95 % 1 lf 1009,4 hPa 0,0 l/m 0 min 0 min 5 W/m 12,6 km/h (3 Bft) 95,74 %
16.09.2017 04:32 8,3 C 7,8 C 6,7 C 95 % 1 lf 1009,3 hPa 0,0 l/m 0 min 0 min 5 W/m 12,6 km/h (3 Bft) 95,74 %
16.09.2017 04:34 8,3 C 7,8 C 6,7 C 95 % 1 lf 1009,3 hPa 0,0 l/m 0 min 0 min 5 W/m 12,6 km/h (3 Bft) 93,62 %
16.09.2017 04:36 8,3 C 7,8 C 6,7 C 95 % 1 lf 1009,3 hPa 0,0 l/m 0 min 0 min 5 W/m 12,6 km/h (3 Bft) 91,49 %
16.09.2017 04:38 8,3 C 7,8 C 6,7 C 95 % 1 lf 1009,3 hPa 0,0 l/m 0 min 0 min 0 W/m 12,6 km/h (3 Bft) 93,62 %
16.09.2017 04:40 8,3 C 7,8 C 6,7 C 95 % 1 lf 1009,3 hPa 0,0 l/m 0 min 0 min 0 W/m 14,6 km/h (3 Bft) 95,65 %
16.09.2017 04:42 8,2 C 7,8 C 6,7 C 95 % 1 lf 1009,4 hPa 0,0 l/m 0 min 0 min 0 W/m 12,6 km/h (3 Bft) 95,74 %
16.09.2017 04:44 8,3 C 7,8 C 6,7 C 95 % 1 lf 1009,4 hPa 0,0 l/m 0 min 0 min 0 W/m 12,6 km/h (3 Bft) 93,62 %
16.09.2017 04:46 8,2 C 7,8 C 6,7 C 95 % 1 lf 1009,3 hPa 0,0 l/m 0 min 0 min 0 W/m 10,5 km/h (2 Bft) 93,62 %
16.09.2017 04:48 8,2 C 7,8 C 6,7 C 95 % 1 lf 1009,3 hPa 0,0 l/m 0 min 0 min 0 W/m 12,6 km/h (3 Bft) 95,74 %
16.09.2017 04:50 8,2 C 7,8 C 6,7 C 95 % 1 lf 1009,4 hPa 0,0 l/m 0 min 0 min 0 W/m 16,7 km/h (3 Bft) 93,62 %
16.09.2017 04:52 8,2 C 7,8 C 6,7 C 95 % 1 lf 1009,4 hPa 0,0 l/m 0 min 0 min 0 W/m 12,6 km/h (3 Bft) 95,65 %
16.09.2017 04:54 8,2 C 7,8 C 6,7 C 95 % 1 lf 1009,4 hPa 0,0 l/m 0 min 0 min 0 W/m 12,6 km/h (3 Bft) 95,74 %
16.09.2017 04:56 8,2 C 7,8 C 6,7 C 95 % 1 lf 1009,3 hPa 0,0 l/m 0 min 0 min 0 W/m 12,6 km/h (3 Bft) 93,62 %
16.09.2017 04:58 8,2 C 7,8 C 6,7 C 95 % 1 lf 1009,3 hPa 0,0 l/m 0 min 0 min 0 W/m 12,6 km/h (3 Bft) 95,74 %
16.09.2017 05:00 8,2 C 7,8 C 6,7 C 95 % 1 lf 1009,3 hPa 0,0 l/m 0 min 0 min 0 W/m 14,6 km/h (3 Bft) 95,74 %
16.09.2017 05:02 8,2 C 7,8 C 6,7 C 95 % 1 lf 1009,3 hPa 0,0 l/m 0 min 0 min 0 W/m 8,4 km/h (2 Bft) 93,62 %
16.09.2017 05:04 8,2 C 7,8 C 6,7 C 95 % 1 lf 1009,3 hPa 0,0 l/m 0 min 0 min 0 W/m 10,5 km/h (2 Bft) 95,65 %
16.09.2017 05:06 8,2 C 7,8 C 6,7 C 95 % 1 lf 1009,3 hPa 0,0 l/m 0 min 0 min 0 W/m 8,4 km/h (2 Bft) 95,74 %
16.09.2017 05:08 8,2 C 7,8 C 6,7 C 95 % 1 lf 1009,3 hPa 0,0 l/m 0 min 0 min 0 W/m 12,6 km/h (3 Bft) 95,74 %
16.09.2017 05:10 8,2 C 7,8 C 6,7 C 95 % 1 lf 1009,3 hPa 0,0 l/m 0 min 0 min 0 W/m 12,6 km/h (3 Bft) 95,74 %
16.09.2017 05:12 8,2 C 7,8 C 6,7 C 95 % 1 lf 1009,4 hPa 0,0 l/m 0 min 0 min 0 W/m 12,6 km/h (3 Bft) 97,87 %
16.09.2017 05:14 8,2 C 7,8 C 6,7 C 95 % 1 lf 1009,3 hPa 0,0 l/m 0 min 0 min 0 W/m 12,6 km/h (3 Bft) 97,87 %
16.09.2017 05:16 8,2 C 7,8 C 6,7 C 95 % 1 lf 1009,3 hPa 0,0 l/m 0 min 0 min 0 W/m 6,3 km/h (2 Bft) 97,83 %
16.09.2017 05:18 8,2 C 7,8 C 6,7 C 95 % 1 lf 1009,3 hPa 0,0 l/m 0 min 0 min 0 W/m 8,4 km/h (2 Bft) 95,74 %
16.09.2017 05:20 8,2 C 7,8 C 6,7 C 95 % 1 lf 1009,4 hPa 0,0 l/m 0 min 0 min 0 W/m 10,5 km/h (2 Bft) 93,62 %
16.09.2017 05:22 8,2 C 7,8 C 6,7 C 95 % 1 lf 1009,3 hPa 0,0 l/m 0 min 0 min 0 W/m 12,6 km/h (3 Bft) 95,74 %
16.09.2017 05:24 8,1 C 7,8 C 6,7 C 95 % 1 lf 1009,3 hPa 0,0 l/m 0 min 0 min 0 W/m 10,5 km/h (2 Bft) 95,74 %
16.09.2017 05:26 8,1 C 7,8 C 6,7 C 95 % 1 lf 1009,3 hPa 0,0 l/m 0 min 0 min 0 W/m 12,6 km/h (3 Bft) 95,74 %
16.09.2017 05:28 8,1 C 7,8 C 6,7 C 95 % 1 lf 1009,3 hPa 0,0 l/m 0 min 0 min 0 W/m 10,5 km/h (2 Bft) 95,65 %
16.09.2017 05:30 8,1 C 7,8 C 6,7 C 95 % 1 lf 1009,3 hPa 0,0 l/m 0 min 0 min 0 W/m 12,6 km/h (3 Bft) 97,87 %
16.09.2017 05:32 8,1 C 7,8 C 6,7 C 95 % 1 lf 1009,3 hPa 0,0 l/m 0 min 0 min 0 W/m 8,4 km/h (2 Bft) 95,74 %
16.09.2017 05:34 8,1 C 7,8 C 6,7 C 95 % 1 lf 1009,3 hPa 0,0 l/m 0 min 0 min 0 W/m 6,3 km/h (2 Bft) 97,87 %
16.09.2017 05:36 8,1 C 7,2 C 6,7 C 96 % 1 lf 1009,3 hPa 0,0 l/m 0 min 0 min 0 W/m 10,5 km/h (2 Bft) 95,74 %
16.09.2017 05:38 8,1 C 7,8 C 6,7 C 96 % 1 lf 1009,3 hPa 0,0 l/m 0 min 0 min 0 W/m 14,6 km/h (3 Bft) 97,87 %
16.09.2017 05:40 8,1 C 7,8 C 6,7 C 96 % 1 lf 1009,3 hPa 0,0 l/m 0 min 0 min 0 W/m 14,6 km/h (3 Bft) 95,65 %
16.09.2017 05:42 8,1 C 7,8 C 6,7 C 96 % 1 lf 1009,3 hPa 0,0 l/m 0 min 0 min 0 W/m 10,5 km/h (2 Bft) 97,87 %
16.09.2017 05:44 8,1 C 7,8 C 6,7 C 96 % 1 lf 1009,2 hPa 0,0 l/m 0 min 0 min 0 W/m 14,6 km/h (3 Bft) 95,74 %
16.09.2017 05:46 8,1 C 7,8 C 6,7 C 96 % 1 lf 1009,2 hPa 0,0 l/m 0 min 0 min 0 W/m 12,6 km/h (3 Bft) 95,74 %
16.09.2017 05:48 8,1 C 7,8 C 6,7 C 96 % 1 lf 1009,2 hPa 0,0 l/m 0 min 0 min 0 W/m 10,5 km/h (2 Bft) 95,74 %
16.09.2017 05:50 8,1 C 7,8 C 6,7 C 96 % 1 lf 1009,2 hPa 0,0 l/m 0 min 0 min 0 W/m 10,5 km/h (2 Bft) 100,00 %
16.09.2017 05:52 8,1 C 7,2 C 6,1 C 96 % 1 lf 1009,3 hPa 0,0 l/m 0 min 0 min 0 W/m 6,3 km/h (2 Bft) 97,87 %
16.09.2017 05:54 8,0 C 7,2 C 6,1 C 96 % 1 lf 1009,2 hPa 0,0 l/m 0 min 0 min 0 W/m 8,4 km/h (2 Bft) 100,00 %
16.09.2017 05:56 8,0 C 7,2 C 6,1 C 96 % 1 lf 1009,2 hPa 0,0 l/m 0 min 0 min 0 W/m 8,4 km/h (2 Bft) 97,87 %
16.09.2017 05:58 8,0 C 7,2 C 6,1 C 96 % 1 lf 1009,2 hPa 0,2 l/m 0 min 0 min 0 W/m 12,6 km/h (3 Bft) 93,62 %
16.09.2017 06:00 8,0 C 7,2 C 6,1 C 96 % 1 lf 1009,2 hPa 0,0 l/m 0 min 0 min 0 W/m 8,4 km/h (2 Bft) 95,74 %
16.09.2017 06:02 8,0 C 7,2 C 6,1 C 96 % 1 lf 1009,2 hPa 0,0 l/m 0 min 0 min 0 W/m 8,4 km/h (2 Bft) 97,83 %
16.09.2017 06:04 8,0 C 7,2 C 6,1 C 96 % 1 lf 1009,2 hPa 0,0 l/m 0 min 0 min 1 W/m 8,4 km/h (2 Bft) 97,87 %
16.09.2017 06:06 7,9 C 7,2 C 6,1 C 96 % 1 lf 1009,2 hPa 0,0 l/m 0 min 0 min 0 W/m 8,4 km/h (2 Bft) 97,87 %
16.09.2017 06:10 7,9 C 7,2 C 6,1 C 96 % 1 lf 1009,2 hPa 0,0 l/m 0 min 0 min 0 W/m 12,6 km/h (3 Bft) 97,67 %
16.09.2017 06:12 7,9 C 7,2 C 6,1 C 95 % 1 lf 1009,3 hPa 0,0 l/m 0 min 0 min 0 W/m 8,4 km/h (2 Bft) 97,87 %
16.09.2017 06:14 7,9 C 7,2 C 6,1 C 95 % 1 lf 1009,3 hPa 0,0 l/m 0 min 0 min 0 W/m 16,7 km/h (3 Bft) 97,83 %
16.09.2017 06:16 7,9 C 7,8 C 6,1 C 95 % 1 lf 1009,2 hPa 0,0 l/m 0 min 0 min 5 W/m 12,6 km/h (3 Bft) 95,74 %
16.09.2017 06:18 7,9 C 7,8 C 6,1 C 95 % 1 lf 1009,2 hPa 0,0 l/m 0 min 0 min 0 W/m 14,6 km/h (3 Bft) 93,62 %
16.09.2017 06:20 7,9 C 7,2 C 6,1 C 95 % 1 lf 1009,2 hPa 0,0 l/m 0 min 0 min 0 W/m 8,4 km/h (2 Bft) 94,92 %
16.09.2017 06:22 7,9 C 7,2 C 6,1 C 95 % 1 lf 1009,2 hPa 0,0 l/m 0 min 0 min 0 W/m 8,4 km/h (2 Bft) 94,29 %
16.09.2017 06:24 7,9 C 7,2 C 6,1 C 95 % 1 lf 1009,2 hPa 0,0 l/m 0 min 0 min 0 W/m 10,5 km/h (2 Bft) 95,74 %
16.09.2017 06:26 7,9 C 7,2 C 6,1 C 95 % 1 lf 1009,2 hPa 0,0 l/m 0 min 0 min 5 W/m 12,6 km/h (3 Bft) 95,65 %
16.09.2017 06:28 7,9 C 7,2 C 6,1 C 95 % 1 lf 1009,1 hPa 0,0 l/m 0 min 0 min 5 W/m 12,6 km/h (3 Bft) 93,62 %
16.09.2017 06:30 7,9 C 7,2 C 6,1 C 96 % 1 lf 1009,2 hPa 0,0 l/m 0 min 0 min 5 W/m 8,4 km/h (2 Bft) 93,62 %
16.09.2017 06:32 7,8 C 7,2 C 6,1 C 95 % 1 lf 1009,2 hPa 0,0 l/m 0 min 0 min 5 W/m 10,5 km/h (2 Bft) 95,74 %
16.09.2017 06:34 7,8 C 7,2 C 6,1 C 96 % 1 lf 1009,2 hPa 0,0 l/m 0 min 0 min 5 W/m 8,4 km/h (2 Bft) 95,74 %
16.09.2017 06:36 7,8 C 7,2 C 6,1 C 96 % 1 lf 1009,2 hPa 0,0 l/m 0 min 0 min 5 W/m 8,4 km/h (2 Bft) 97,87 %
16.09.2017 06:38 7,8 C 7,2 C 6,1 C 96 % 1 lf 1009,2 hPa 0,0 l/m 0 min 0 min 5 W/m 6,3 km/h (2 Bft) 95,65 %
16.09.2017 06:40 7,8 C 7,2 C 5,6 C 96 % 1 lf 1009,2 hPa 0,0 l/m 0 min 0 min 5 W/m 8,4 km/h (2 Bft) 97,87 %
16.09.2017 06:42 7,8 C 7,2 C 6,1 C 96 % 1 lf 1009,2 hPa 0,0 l/m 0 min 0 min 0 W/m 8,4 km/h (2 Bft) 95,74 %
16.09.2017 06:44 7,8 C 7,2 C 6,1 C 96 % 1 lf 1009,3 hPa 0,0 l/m 0 min 0 min 0 W/m 10,5 km/h (2 Bft) 97,87 %
16.09.2017 06:46 7,8 C 7,2 C 6,1 C 96 % 1 lf 1009,2 hPa 0,0 l/m 0 min 0 min 0 W/m 12,6 km/h (3 Bft) 95,74 %
16.09.2017 06:48 7,7 C 7,2 C 6,1 C 96 % 1 lf 1009,2 hPa 0,0 l/m 0 min 0 min 5 W/m 12,6 km/h (3 Bft) 96,23 %
16.09.2017 06:50 7,7 C 7,2 C 6,1 C 96 % 1 lf 1009,2 hPa 0,0 l/m 0 min 0 min 0 W/m 8,4 km/h (2 Bft) 95,65 %
16.09.2017 06:52 7,7 C 7,2 C 6,1 C 96 % 1 lf 1009,2 hPa 0,0 l/m 0 min 0 min 0 W/m 12,6 km/h (3 Bft) 97,87 %
16.09.2017 06:54 7,7 C 7,2 C 6,1 C 96 % 1 lf 1009,2 hPa 0,0 l/m 0 min 0 min 0 W/m 8,4 km/h (2 Bft) 97,87 %
16.09.2017 06:56 7,7 C 7,2 C 6,1 C 96 % 1 lf 1009,1 hPa 0,0 l/m 0 min 0 min 0 W/m 8,4 km/h (2 Bft) 95,74 %
16.09.2017 06:58 7,7 C 7,2 C 6,1 C 96 % 1 lf 1009,2 hPa 0,0 l/m 0 min 0 min 8 W/m 8,4 km/h (2 Bft) 97,87 %
16.09.2017 07:00 7,7 C 7,2 C 6,1 C 96 % 1 lf 1009,2 hPa 0,0 l/m 0 min 0 min 6 W/m 8,4 km/h (2 Bft) 97,87 %
16.09.2017 07:02 7,7 C 7,2 C 6,1 C 96 % 2 lf 1009,2 hPa 0,0 l/m 0 min 0 min 7 W/m 10,5 km/h (2 Bft) 97,83 %
16.09.2017 07:04 7,7 C 7,2 C 6,1 C 96 % 2 lf 1009,2 hPa 0,0 l/m 0 min 0 min 7 W/m 10,5 km/h (2 Bft) 95,74 %
16.09.2017 07:06 7,7 C 7,2 C 6,1 C 96 % 2 lf 1009,2 hPa 0,0 l/m 0 min 0 min 7 W/m 10,5 km/h (2 Bft) 95,74 %
16.09.2017 07:08 7,7 C 7,2 C 6,1 C 96 % 2 lf 1009,2 hPa 0,0 l/m 0 min 0 min 8 W/m 8,4 km/h (2 Bft) 97,87 %
16.09.2017 07:10 7,6 C 7,2 C 6,1 C 96 % 2 lf 1009,2 hPa 0,0 l/m 0 min 0 min 9 W/m 8,4 km/h (2 Bft) 93,62 %
16.09.2017 07:12 7,6 C 7,2 C 6,1 C 96 % 2 lf 1009,3 hPa 0,0 l/m 0 min 0 min 10 W/m 10,5 km/h (2 Bft) 95,65 %
16.09.2017 07:14 7,6 C 7,2 C 6,1 C 96 % 2 lf 1009,3 hPa 0,0 l/m 0 min 0 min 11 W/m 10,5 km/h (2 Bft) 97,87 %
16.09.2017 07:16 7,6 C 7,2 C 6,1 C 96 % 2 lf 1009,2 hPa 0,0 l/m 0 min 0 min 11 W/m 8,4 km/h (2 Bft) 92,68 %
16.09.2017 07:18 7,6 C 7,2 C 6,1 C 96 % 2 lf 1009,2 hPa 0,0 l/m 0 min 0 min 11 W/m 8,4 km/h (2 Bft) 98,11 %
16.09.2017 07:20 7,6 C 7,2 C 6,1 C 96 % 2 lf 1009,3 hPa 0,0 l/m 0 min 0 min 12 W/m 8,4 km/h (2 Bft) 89,36 %
16.09.2017 07:22 7,6 C 7,2 C 6,1 C 96 % 2 lf 1009,3 hPa 0,0 l/m 0 min 0 min 14 W/m 8,4 km/h (2 Bft) 97,87 %
16.09.2017 07:24 7,6 C 7,2 C 6,1 C 96 % 2 lf 1009,3 hPa 0,0 l/m 0 min 0 min 14 W/m 8,4 km/h (2 Bft) 97,83 %
16.09.2017 07:26 7,6 C 7,2 C 6,1 C 96 % 2 lf 1009,3 hPa 0,0 l/m 0 min 0 min 16 W/m 8,4 km/h (2 Bft) 97,87 %
16.09.2017 07:28 7,6 C 7,2 C 6,1 C 96 % 2 lf 1009,3 hPa 0,0 l/m 0 min 0 min 16 W/m 8,4 km/h (2 Bft) 97,87 %
16.09.2017 07:30 7,6 C 7,2 C 6,1 C 96 % 2 lf 1009,3 hPa 0,0 l/m 0 min 0 min 19 W/m 10,5 km/h (2 Bft) 97,87 %
16.09.2017 07:32 7,6 C 7,2 C 6,1 C 96 % 2 lf 1009,3 hPa 0,0 l/m 0 min 0 min 21 W/m 8,4 km/h (2 Bft) 95,74 %
16.09.2017 07:34 7,6 C 7,2 C 6,1 C 96 % 2 lf 1009,3 hPa 0,0 l/m 2 min 0 min 24 W/m 6,3 km/h (2 Bft) 95,74 %
16.09.2017 07:36 7,6 C 7,2 C 6,1 C 96 % 2 lf 1009,3 hPa 0,0 l/m 2 min 0 min 30 W/m 6,3 km/h (2 Bft) 97,83 %
16.09.2017 07:38 7,6 C 7,2 C 6,1 C 96 % 2 lf 1009,3 hPa 0,0 l/m 2 min 0 min 34 W/m 8,4 km/h (2 Bft) 95,74 %
16.09.2017 07:40 7,6 C 7,2 C 6,1 C 96 % 2 lf 1009,3 hPa 0,0 l/m 2 min 0 min 36 W/m 10,5 km/h (2 Bft) 95,74 %
16.09.2017 07:42 7,6 C 7,2 C 6,1 C 96 % 2 lf 1009,4 hPa 0,0 l/m 2 min 0 min 38 W/m 8,4 km/h (2 Bft) 93,62 %
16.09.2017 07:44 7,6 C 7,2 C 6,1 C 96 % 2 lf 1009,3 hPa 0,0 l/m 2 min 0 min 41 W/m 8,4 km/h (2 Bft) 95,74 %
16.09.2017 07:46 7,6 C 7,2 C 6,1 C 96 % 2 lf 1009,4 hPa 0,0 l/m 2 min 0 min 44 W/m 6,3 km/h (2 Bft) 97,87 %
16.09.2017 07:48 7,6 C 7,2 C 6,1 C 96 % 2 lf 1009,4 hPa 0,0 l/m 2 min 0 min 46 W/m 8,4 km/h (2 Bft) 100,00 %
16.09.2017 07:50 7,6 C 7,8 C 6,1 C 96 % 2 lf 1009,4 hPa 0,0 l/m 2 min 0 min 50 W/m 8,4 km/h (2 Bft) 95,74 %
16.09.2017 07:52 7,6 C 7,8 C 6,1 C 96 % 2 lf 1009,4 hPa 0,0 l/m 2 min 0 min 51 W/m 10,5 km/h (2 Bft) 95,74 %
16.09.2017 07:54 7,6 C 7,8 C 6,1 C 96 % 1 lf 1009,4 hPa 0,0 l/m 2 min 0 min 57 W/m 8,4 km/h (2 Bft) 97,87 %
16.09.2017 07:56 7,6 C 7,8 C 6,7 C 96 % 1 lf 1009,4 hPa 0,0 l/m 2 min 0 min 63 W/m 8,4 km/h (2 Bft) 97,87 %
16.09.2017 07:58 7,6 C 7,8 C 6,7 C 96 % 1 lf 1009,4 hPa 0,0 l/m 2 min 0 min 68 W/m 10,5 km/h (2 Bft) 97,87 %
16.09.2017 08:00 7,6 C 7,8 C 6,7 C 96 % 1 lf 1009,4 hPa 0,0 l/m 2 min 0 min 73 W/m 8,4 km/h (2 Bft) 97,83 %
16.09.2017 08:02 7,6 C 7,8 C 6,7 C 96 % 1 lf 1009,4 hPa 0,0 l/m 2 min 0 min 76 W/m 10,5 km/h (2 Bft) 97,62 %
16.09.2017 08:04 7,6 C 7,8 C 6,7 C 96 % 1 lf 1009,4 hPa 0,0 l/m 2 min 0 min 81 W/m 10,5 km/h (2 Bft) 97,87 %
16.09.2017 08:08 7,7 C 7,8 C 6,7 C 96 % 1 lf 1009,4 hPa 0,0 l/m 4 min 0 min 87 W/m 12,6 km/h (3 Bft) 97,03 %
16.09.2017 08:10 7,7 C 7,8 C 6,7 C 96 % 1 lf 1009,4 hPa 0,0 l/m 2 min 0 min 95 W/m 12,6 km/h (3 Bft) 97,83 %
16.09.2017 08:12 7,7 C 7,8 C 6,7 C 96 % 0 lf 1009,5 hPa 0,0 l/m 2 min 0 min 101 W/m 12,6 km/h (3 Bft) 95,74 %
16.09.2017 08:14 7,8 C 8,3 C 6,7 C 96 % 0 lf 1009,4 hPa 0,0 l/m 2 min 0 min 105 W/m 14,6 km/h (3 Bft) 97,87 %
16.09.2017 08:16 7,8 C 8,3 C 6,7 C 96 % 0 lf 1009,4 hPa 0,0 l/m 2 min 0 min 110 W/m 10,5 km/h (2 Bft) 95,74 %
16.09.2017 08:18 7,8 C 8,3 C 7,2 C 96 % 0 lf 1009,4 hPa 0,0 l/m 2 min 0 min 115 W/m 10,5 km/h (2 Bft) 97,87 %
16.09.2017 08:20 7,8 C 8,3 C 7,2 C 96 % 0 lf 1009,4 hPa 0,0 l/m 2 min 0 min 120 W/m 14,6 km/h (3 Bft) 97,87 %
16.09.2017 08:22 7,9 C 8,3 C 7,2 C 96 % 0 lf 1009,5 hPa 0,0 l/m 2 min 0 min 126 W/m 12,6 km/h (3 Bft) 97,83 %
16.09.2017 08:24 7,9 C 10,0 C 7,2 C 96 % 0 lf 1009,5 hPa 0,0 l/m 2 min 0 min 131 W/m 14,6 km/h (3 Bft) 100,00 %
16.09.2017 08:26 7,9 C 11,7 C 7,2 C 96 % 0 lf 1009,5 hPa 0,0 l/m 2 min 0 min 137 W/m 14,6 km/h (3 Bft) 100,00 %
16.09.2017 08:28 8,0 C 12,2 C 7,2 C 96 % 0 lf 1009,5 hPa 0,0 l/m 2 min 0 min 141 W/m 12,6 km/h (3 Bft) 97,87 %
16.09.2017 08:30 8,1 C 13,3 C 7,2 C 96 % 0 lf 1009,5 hPa 0,0 l/m 2 min 0 min 147 W/m 12,6 km/h (3 Bft) 100,00 %
16.09.2017 08:32 8,1 C 13,9 C 7,2 C 96 % 0 lf 1009,4 hPa 0,0 l/m 2 min 0 min 154 W/m 10,5 km/h (2 Bft) 97,87 %
16.09.2017 08:34 8,2 C 15,0 C 7,8 C 97 % 0 lf 1009,4 hPa 0,0 l/m 2 min 0 min 160 W/m 14,6 km/h (3 Bft) 100,00 %
16.09.2017 08:36 8,3 C 15,0 C 7,8 C 97 % 0 lf 1009,4 hPa 0,0 l/m 2 min 0 min 163 W/m 14,6 km/h (3 Bft) 100,00 %
16.09.2017 08:38 8,3 C 15,0 C 7,8 C 97 % 0 lf 1009,4 hPa 0,0 l/m 2 min 0 min 163 W/m 16,7 km/h (3 Bft) 97,87 %
16.09.2017 08:40 8,4 C 15,0 C 7,8 C 97 % 0 lf 1009,3 hPa 0,0 l/m 2 min 0 min 173 W/m 23,0 km/h (4 Bft) 97,87 %
16.09.2017 08:42 8,6 C 15,0 C 7,8 C 97 % 0 lf 1009,4 hPa 0,0 l/m 2 min 0 min 182 W/m 16,7 km/h (3 Bft) 97,87 %
16.09.2017 08:44 8,7 C 15,6 C 8,3 C 97 % 0 lf 1009,4 hPa 0,0 l/m 2 min 0 min 189 W/m 14,6 km/h (3 Bft) 97,87 %
16.09.2017 08:46 8,7 C 15,0 C 8,3 C 97 % 0 lf 1009,4 hPa 0,0 l/m 2 min 0 min 199 W/m 8,4 km/h (2 Bft) 97,83 %
16.09.2017 08:48 8,8 C 16,1 C 8,3 C 97 % 0 lf 1009,5 hPa 0,0 l/m 2 min 0 min 207 W/m 12,6 km/h (3 Bft) 97,87 %
16.09.2017 08:50 8,9 C 16,7 C 8,3 C 97 % 0 lf 1009,5 hPa 0,0 l/m 2 min 0 min 206 W/m 12,6 km/h (3 Bft) 95,74 %
16.09.2017 08:52 9,1 C 16,7 C 8,3 C 97 % 0 lf 1009,5 hPa 0,0 l/m 2 min 0 min 220 W/m 12,6 km/h (3 Bft) 97,87 %
16.09.2017 08:54 9,1 C 16,7 C 8,9 C 97 % 0 lf 1009,5 hPa 0,0 l/m 2 min 0 min 226 W/m 10,5 km/h (2 Bft) 97,87 %
16.09.2017 08:56 9,2 C 17,2 C 8,9 C 97 % 0 lf 1009,5 hPa 0,0 l/m 2 min 0 min 235 W/m 10,5 km/h (2 Bft) 98,00 %
16.09.2017 08:58 9,3 C 17,2 C 8,9 C 97 % 0 lf 1009,5 hPa 0,0 l/m 2 min 0 min 223 W/m 16,7 km/h (3 Bft) 97,83 %
16.09.2017 09:00 9,4 C 16,7 C 8,9 C 97 % 0 lf 1009,5 hPa 0,0 l/m 2 min 0 min 246 W/m 12,6 km/h (3 Bft) 97,87 %
16.09.2017 09:02 9,5 C 16,1 C 8,9 C 97 % 0 lf 1009,5 hPa 0,0 l/m 2 min 0 min 246 W/m 12,6 km/h (3 Bft) 97,87 %
16.09.2017 09:04 9,6 C 17,2 C 8,9 C 97 % 0 lf 1009,5 hPa 0,0 l/m 2 min 0 min 263 W/m 12,6 km/h (3 Bft) 97,87 %
16.09.2017 09:06 9,7 C 17,2 C 9,4 C 97 % 0 lf 1009,6 hPa 0,0 l/m 2 min 0 min 301 W/m 16,7 km/h (3 Bft) 93,62 %
16.09.2017 09:08 9,7 C 18,3 C 9,4 C 97 % 0 lf 1009,5 hPa 0,0 l/m 2 min 0 min 295 W/m 8,4 km/h (2 Bft) 95,74 %
16.09.2017 09:10 9,8 C 19,4 C 9,4 C 97 % 0 lf 1009,6 hPa 0,0 l/m 2 min 0 min 286 W/m 8,4 km/h (2 Bft) 93,48 %
16.09.2017 09:12 9,9 C 18,3 C 9,4 C 97 % 0 lf 1009,5 hPa 0,0 l/m 2 min 0 min 271 W/m 12,6 km/h (3 Bft) 95,74 %
16.09.2017 09:14 10,1 C 19,4 C 10,0 C 97 % 0 lf 1009,6 hPa 0,0 l/m 2 min 0 min 292 W/m 12,6 km/h (3 Bft) 91,49 %
16.09.2017 09:16 10,2 C 20,0 C 10,0 C 97 % 0 lf 1009,6 hPa 0,0 l/m 2 min 0 min 315 W/m 8,4 km/h (2 Bft) 93,62 %
16.09.2017 09:18 10,3 C 19,4 C 10,0 C 96 % 0 lf 1009,6 hPa 0,0 l/m 2 min 0 min 303 W/m 10,5 km/h (2 Bft) 95,74 %
16.09.2017 09:20 10,4 C 20,0 C 10,0 C 96 % 0 lf 1009,7 hPa 0,0 l/m 2 min 0 min 299 W/m 12,6 km/h (3 Bft) 93,62 %
16.09.2017 09:22 10,5 C 20,6 C 10,0 C 96 % 0 lf 1009,6 hPa 0,0 l/m 2 min 0 min 304 W/m 14,6 km/h (3 Bft) 95,65 %
16.09.2017 09:24 10,6 C 20,6 C 10,0 C 96 % 0 lf 1009,6 hPa 0,0 l/m 2 min 0 min 312 W/m 12,6 km/h (3 Bft) 93,62 %
16.09.2017 09:26 10,7 C 21,7 C 10,0 C 96 % 0 lf 1009,6 hPa 0,0 l/m 2 min 0 min 312 W/m 8,4 km/h (2 Bft) 95,74 %
16.09.2017 09:28 10,8 C 20,0 C 10,0 C 96 % 0 lf 1009,7 hPa 0,0 l/m 2 min 0 min 304 W/m 12,6 km/h (3 Bft) 91,49 %
16.09.2017 09:30 10,9 C 18,9 C 10,0 C 95 % 0 lf 1009,7 hPa 0,0 l/m 2 min 0 min 312 W/m 14,6 km/h (3 Bft) 93,62 %
16.09.2017 09:32 11,0 C 19,4 C 10,0 C 95 % 0 lf 1009,7 hPa 0,0 l/m 2 min 0 min 319 W/m 16,7 km/h (3 Bft) 93,48 %
16.09.2017 09:34 11,1 C 20,6 C 10,0 C 94 % 0 lf 1009,8 hPa 0,0 l/m 2 min 0 min 327 W/m 14,6 km/h (3 Bft) 95,74 %
16.09.2017 09:36 11,2 C 20,6 C 10,6 C 94 % 0 lf 1009,8 hPa 0,0 l/m 2 min 0 min 334 W/m 16,7 km/h (3 Bft) 97,87 %
16.09.2017 09:38 11,3 C 20,0 C 10,6 C 93 % 0 lf 1009,8 hPa 0,0 l/m 2 min 0 min 339 W/m 14,6 km/h (3 Bft) 97,87 %
16.09.2017 09:40 11,4 C 19,4 C 10,6 C 93 % 0 lf 1009,8 hPa 0,0 l/m 2 min 0 min 343 W/m 14,6 km/h (3 Bft) 97,87 %
16.09.2017 09:42 11,4 C 19,4 C 10,6 C 92 % 0 lf 1009,8 hPa 0,0 l/m 2 min 0 min 347 W/m 14,6 km/h (3 Bft) 91,49 %
16.09.2017 09:44 11,6 C 20,0 C 11,1 C 92 % 0 lf 1009,8 hPa 0,0 l/m 2 min 0 min 350 W/m 12,6 km/h (3 Bft) 100,00 %
16.09.2017 09:46 11,7 C 20,6 C 11,1 C 92 % 0 lf 1009,8 hPa 0,0 l/m 2 min 0 min 353 W/m 12,6 km/h (3 Bft) 97,87 %
16.09.2017 09:48 11,8 C 21,1 C 11,1 C 91 % 0 lf 1009,8 hPa 0,0 l/m 2 min 0 min 358 W/m 8,4 km/h (2 Bft) 97,87 %
16.09.2017 09:50 11,9 C 22,2 C 11,7 C 91 % 0 lf 1009,8 hPa 0,0 l/m 2 min 0 min 365 W/m 14,6 km/h (3 Bft) 91,49 %
16.09.2017 09:52 12,0 C 21,7 C 11,7 C 91 % 0 lf 1009,8 hPa 0,0 l/m 2 min 0 min 371 W/m 12,6 km/h (3 Bft) 95,74 %
16.09.2017 09:54 12,1 C 21,1 C 11,7 C 90 % 0 lf 1009,8 hPa 0,0 l/m 2 min 0 min 376 W/m 14,6 km/h (3 Bft) 95,74 %
16.09.2017 09:56 12,2 C 21,7 C 11,7 C 90 % 0 lf 1009,8 hPa 0,0 l/m 2 min 0 min 375 W/m 12,6 km/h (3 Bft) 95,65 %
16.09.2017 09:58 12,3 C 21,7 C 12,2 C 89 % 0 lf 1009,8 hPa 0,0 l/m 2 min 0 min 379 W/m 18,8 km/h (3 Bft) 95,74 %
16.09.2017 10:00 12,3 C 21,7 C 12,2 C 89 % 0 lf 1009,8 hPa 0,0 l/m 2 min 0 min 388 W/m 12,6 km/h (3 Bft) 91,49 %
16.09.2017 10:02 12,4 C 21,1 C 12,2 C 89 % 0 lf 1009,9 hPa 0,0 l/m 2 min 0 min 397 W/m 10,5 km/h (2 Bft) 95,74 %
16.09.2017 10:04 12,5 C 21,7 C 12,8 C 88 % 0 lf 1009,9 hPa 0,0 l/m 2 min 0 min 404 W/m 12,6 km/h (3 Bft) 95,74 %
16.09.2017 10:06 12,6 C 22,2 C 12,8 C 88 % 0 lf 1009,9 hPa 0,0 l/m 2 min 0 min 408 W/m 14,6 km/h (3 Bft) 95,65 %
16.09.2017 10:08 12,7 C 20,6 C 12,8 C 87 % 0 lf 1009,9 hPa 0,0 l/m 2 min 0 min 411 W/m 18,8 km/h (3 Bft) 93,62 %
16.09.2017 10:10 12,7 C 18,9 C 12,8 C 87 % 0 lf 1009,9 hPa 0,0 l/m 2 min 0 min 413 W/m 18,8 km/h (3 Bft) 95,74 %
16.09.2017 10:12 12,8 C 18,3 C 12,8 C 86 % 0 lf 1010,0 hPa 0,0 l/m 2 min 0 min 418 W/m 16,7 km/h (3 Bft) 93,62 %
16.09.2017 10:14 12,8 C 17,8 C 13,3 C 86 % 0 lf 1010,0 hPa 0,0 l/m 2 min 0 min 424 W/m 14,6 km/h (3 Bft) 97,87 %
16.09.2017 10:16 12,9 C 16,7 C 13,9 C 86 % 0 lf 1010,0 hPa 0,0 l/m 2 min 0 min 428 W/m 12,6 km/h (3 Bft) 91,30 %
16.09.2017 10:18 13,0 C 16,1 C 13,9 C 86 % 0 lf 1010,0 hPa 0,0 l/m 2 min 0 min 435 W/m 14,6 km/h (3 Bft) 96,72 %
16.09.2017 10:20 13,1 C 18,3 C 14,4 C 86 % 0 lf 1010,1 hPa 0,0 l/m 2 min 0 min 440 W/m 14,6 km/h (3 Bft) 96,55 %
16.09.2017 10:22 13,1 C 19,4 C 14,4 C 85 % 0 lf 1010,1 hPa 0,0 l/m 2 min 0 min 446 W/m 14,6 km/h (3 Bft) 94,29 %
16.09.2017 10:24 13,1 C 18,9 C 14,4 C 85 % 0 lf 1010,1 hPa 0,0 l/m 2 min 0 min 450 W/m 14,6 km/h (3 Bft) 95,74 %
16.09.2017 10:26 13,2 C 20,0 C 14,4 C 85 % 0 lf 1010,1 hPa 0,0 l/m 2 min 0 min 455 W/m 16,7 km/h (3 Bft) 95,74 %
16.09.2017 10:28 13,3 C 21,7 C 15,0 C 84 % 0 lf 1010,1 hPa 0,0 l/m 2 min 0 min 459 W/m 16,7 km/h (3 Bft) 95,74 %
16.09.2017 10:30 13,3 C 22,2 C 15,0 C 84 % 0 lf 1010,1 hPa 0,0 l/m 2 min 0 min 462 W/m 16,7 km/h (3 Bft) 93,62 %
16.09.2017 10:32 13,4 C 22,8 C 14,4 C 84 % 0 lf 1010,1 hPa 0,0 l/m 2 min 0 min 468 W/m 14,6 km/h (3 Bft) 93,48 %
16.09.2017 10:34 13,4 C 22,2 C 15,0 C 84 % 0 lf 1010,1 hPa 0,0 l/m 2 min 0 min 475 W/m 10,5 km/h (2 Bft) 95,74 %
16.09.2017 10:36 13,6 C 22,8 C 14,4 C 84 % 0 lf 1010,1 hPa 0,0 l/m 2 min 0 min 501 W/m 12,6 km/h (3 Bft) 95,74 %
16.09.2017 10:38 13,6 C 23,3 C 14,4 C 84 % 0 lf 1010,2 hPa 0,0 l/m 2 min 0 min 494 W/m 12,6 km/h (3 Bft) 95,74 %
16.09.2017 10:40 13,7 C 22,8 C 13,9 C 84 % 0 lf 1010,2 hPa 0,0 l/m 2 min 0 min 502 W/m 18,8 km/h (3 Bft) 91,49 %
16.09.2017 10:42 13,8 C 23,3 C 13,9 C 84 % 0 lf 1010,2 hPa 0,0 l/m 2 min 0 min 519 W/m 16,7 km/h (3 Bft) 95,74 %
16.09.2017 10:44 13,9 C 22,8 C 13,9 C 83 % 0 lf 1010,2 hPa 0,0 l/m 2 min 0 min 506 W/m 23,0 km/h (4 Bft) 95,65 %
16.09.2017 10:46 13,9 C 22,8 C 13,9 C 83 % 0 lf 1010,1 hPa 0,0 l/m 2 min 0 min 619 W/m 23,0 km/h (4 Bft) 97,87 %
16.09.2017 10:48 14,1 C 22,2 C 15,0 C 82 % 0 lf 1010,1 hPa 0,0 l/m 2 min 0 min 539 W/m 14,6 km/h (3 Bft) 95,74 %
16.09.2017 10:50 14,2 C 22,2 C 15,6 C 82 % 0 lf 1010,1 hPa 0,0 l/m 2 min 0 min 543 W/m 16,7 km/h (3 Bft) 98,31 %
16.09.2017 10:52 14,2 C 23,3 C 16,7 C 82 % 0 lf 1010,1 hPa 0,0 l/m 2 min 0 min 547 W/m 12,6 km/h (3 Bft) 97,14 %
16.09.2017 10:54 14,2 C 23,9 C 17,8 C 82 % 0 lf 1010,1 hPa 0,0 l/m 2 min 0 min 550 W/m 12,6 km/h (3 Bft) 100,00 %
16.09.2017 10:56 14,3 C 23,9 C 17,8 C 82 % 0 lf 1010,2 hPa 0,0 l/m 2 min 0 min 554 W/m 14,6 km/h (3 Bft) 97,83 %
16.09.2017 10:58 14,4 C 22,2 C 17,8 C 81 % 0 lf 1010,2 hPa 0,0 l/m 2 min 0 min 557 W/m 18,8 km/h (3 Bft) 100,00 %
16.09.2017 11:00 14,5 C 21,1 C 17,8 C 80 % 0 lf 1010,2 hPa 0,0 l/m 2 min 0 min 561 W/m 18,8 km/h (3 Bft) 100,00 %
16.09.2017 11:02 14,6 C 21,1 C 17,8 C 80 % 0 lf 1010,1 hPa 0,0 l/m 2 min 0 min 564 W/m 16,7 km/h (3 Bft) 100,00 %
16.09.2017 11:04 14,6 C 22,2 C 18,9 C 80 % 0 lf 1010,1 hPa 0,0 l/m 2 min 0 min 568 W/m 20,9 km/h (4 Bft) 100,00 %
16.09.2017 11:06 14,7 C 23,9 C 19,4 C 79 % 0 lf 1010,1 hPa 0,0 l/m 2 min 0 min 571 W/m 16,7 km/h (3 Bft) 100,00 %
16.09.2017 11:08 14,7 C 22,8 C 19,4 C 79 % 0 lf 1010,1 hPa 0,0 l/m 2 min 0 min 575 W/m 20,9 km/h (4 Bft) 100,00 %
16.09.2017 11:10 14,8 C 22,8 C 18,9 C 78 % 0 lf 1010,1 hPa 0,0 l/m 0 min 0 min 225 W/m 16,7 km/h (3 Bft) 100,00 %
16.09.2017 11:12 14,8 C 22,8 C 18,9 C 78 % 0 lf 1010,1 hPa 0,0 l/m 0 min 0 min 225 W/m 16,7 km/h (3 Bft) 97,87 %
16.09.2017 11:14 14,8 C 22,8 C 18,9 C 78 % 0 lf 1010,2 hPa 0,0 l/m 2 min 0 min 584 W/m 23,0 km/h (4 Bft) 97,87 %
16.09.2017 11:16 14,9 C 23,3 C 18,9 C 78 % 0 lf 1010,2 hPa 0,0 l/m 2 min 0 min 587 W/m 20,9 km/h (4 Bft) 100,00 %
16.09.2017 11:18 14,9 C 21,1 C 18,3 C 78 % 0 lf 1010,1 hPa 0,0 l/m 2 min 0 min 591 W/m 23,0 km/h (4 Bft) 100,00 %
16.09.2017 11:20 14,9 C 21,7 C 18,3 C 77 % 0 lf 1010,1 hPa 0,0 l/m 2 min 0 min 594 W/m 20,9 km/h (4 Bft) 100,00 %
16.09.2017 11:22 14,9 C 21,7 C 18,3 C 77 % 0 lf 1010,1 hPa 0,0 l/m 2 min 0 min 597 W/m 18,8 km/h (3 Bft) 97,14 %
16.09.2017 11:24 14,9 C 22,8 C 18,9 C 78 % 0 lf 1010,1 hPa 0,0 l/m 2 min 0 min 600 W/m 16,7 km/h (3 Bft) 97,87 %
16.09.2017 11:26 14,9 C 20,6 C 17,2 C 77 % 0 lf 1010,2 hPa 0,0 l/m 2 min 0 min 603 W/m 25,1 km/h (4 Bft) 100,00 %
16.09.2017 11:28 14,9 C 18,9 C 16,1 C 76 % 0 lf 1010,1 hPa 0,0 l/m 2 min 0 min 606 W/m 25,1 km/h (4 Bft) 100,00 %
16.09.2017 11:30 14,8 C 17,8 C 15,0 C 76 % 0 lf 1010,2 hPa 0,0 l/m 2 min 0 min 608 W/m 16,7 km/h (3 Bft) 100,00 %
16.09.2017 11:32 14,8 C 17,8 C 15,0 C 76 % 0 lf 1010,2 hPa 0,0 l/m 2 min 0 min 611 W/m 14,6 km/h (3 Bft) 95,74 %
16.09.2017 11:34 14,7 C 17,2 C 14,4 C 76 % 0 lf 1010,1 hPa 0,0 l/m 2 min 0 min 813 W/m 18,8 km/h (3 Bft) 91,49 %
16.09.2017 11:36 14,7 C 16,7 C 14,4 C 76 % 0 lf 1010,1 hPa 0,0 l/m 2 min 0 min 811 W/m 20,9 km/h (4 Bft) 97,87 %
16.09.2017 11:38 14,6 C 18,9 C 16,1 C 76 % 0 lf 1010,1 hPa 0,0 l/m 2 min 0 min 619 W/m 16,7 km/h (3 Bft) 97,87 %
16.09.2017 11:40 14,6 C 20,6 C 18,3 C 77 % 0 lf 1010,1 hPa 0,0 l/m 2 min 0 min 622 W/m 16,7 km/h (3 Bft) 97,87 %
16.09.2017 11:42 14,7 C 22,8 C 19,4 C 77 % 0 lf 1010,1 hPa 0,0 l/m 2 min 0 min 625 W/m 14,6 km/h (3 Bft) 95,65 %
16.09.2017 11:44 14,8 C 23,9 C 20,0 C 78 % 0 lf 1010,1 hPa 0,0 l/m 2 min 0 min 627 W/m 20,9 km/h (4 Bft) 95,74 %
16.09.2017 11:46 14,9 C 24,4 C 20,6 C 77 % 0 lf 1010,1 hPa 0,0 l/m 2 min 0 min 630 W/m 25,1 km/h (4 Bft) 93,62 %
16.09.2017 11:48 14,9 C 23,9 C 20,6 C 77 % 0 lf 1010,1 hPa 0,0 l/m 2 min 0 min 632 W/m 14,6 km/h (3 Bft) 95,74 %
16.09.2017 11:50 15,1 C 23,9 C 21,7 C 77 % 0 lf 1010,0 hPa 0,0 l/m 2 min 0 min 635 W/m 14,6 km/h (3 Bft) 95,74 %
16.09.2017 11:52 15,2 C 23,9 C 21,7 C 76 % 0 lf 1010,1 hPa 0,0 l/m 2 min 0 min 637 W/m 14,6 km/h (3 Bft) 95,74 %
16.09.2017 11:54 15,4 C 26,1 C 22,2 C 77 % 0 lf 1010,0 hPa 0,0 l/m 2 min 0 min 639 W/m 14,6 km/h (3 Bft) 95,65 %
16.09.2017 11:56 15,6 C 26,7 C 22,8 C 76 % 0 lf 1010,0 hPa 0,0 l/m 2 min 0 min 642 W/m 18,8 km/h (3 Bft) 93,62 %
16.09.2017 11:58 15,7 C 27,8 C 22,8 C 76 % 0 lf 1010,0 hPa 0,0 l/m 2 min 0 min 644 W/m 18,8 km/h (3 Bft) 95,74 %
16.09.2017 12:00 15,8 C 25,0 C 21,7 C 75 % 0 lf 1010,1 hPa 0,0 l/m 2 min 0 min 646 W/m 20,9 km/h (4 Bft) 93,62 %
16.09.2017 12:02 15,9 C 24,4 C 21,7 C 75 % 0 lf 1010,1 hPa 0,0 l/m 2 min 0 min 648 W/m 16,7 km/h (3 Bft) 93,62 %
16.09.2017 12:04 15,9 C 23,3 C 21,7 C 74 % 0 lf 1010,0 hPa 0,0 l/m 2 min 0 min 650 W/m 18,8 km/h (3 Bft) 93,62 %
16.09.2017 12:06 16,1 C 23,9 C 21,1 C 74 % 0 lf 1010,0 hPa 0,0 l/m 2 min 0 min 652 W/m 25,1 km/h (4 Bft) 93,48 %
16.09.2017 12:10 16,2 C 22,2 C 18,9 C 74 % 0 lf 1010,0 hPa 0,0 l/m 4 min 0 min 623 W/m 18,8 km/h (3 Bft) 95,05 %
16.09.2017 12:12 16,2 C 20,0 C 17,8 C 73 % 0 lf 1009,9 hPa 0,0 l/m 0 min 0 min 187 W/m 14,6 km/h (3 Bft) 95,74 %
16.09.2017 12:14 16,1 C 21,1 C 17,8 C 73 % 0 lf 1010,0 hPa 0,0 l/m 0 min 0 min 283 W/m 12,6 km/h (3 Bft) 95,74 %
16.09.2017 12:16 16,2 C 21,1 C 18,3 C 73 % 0 lf 1010,0 hPa 0,0 l/m 2 min 0 min 761 W/m 10,5 km/h (2 Bft) 95,65 %
16.09.2017 12:18 16,1 C 21,7 C 18,9 C 73 % 0 lf 1010,0 hPa 0,0 l/m 0 min 0 min 267 W/m 18,8 km/h (3 Bft) 93,62 %
16.09.2017 12:20 16,1 C 21,7 C 18,9 C 73 % 0 lf 1010,0 hPa 0,0 l/m 2 min 0 min 665 W/m 16,7 km/h (3 Bft) 97,87 %
16.09.2017 12:22 16,2 C 21,7 C 18,3 C 73 % 0 lf 1010,0 hPa 0,0 l/m 2 min 0 min 667 W/m 18,8 km/h (3 Bft) 95,74 %
16.09.2017 12:24 16,2 C 21,1 C 18,9 C 72 % 0 lf 1010,0 hPa 0,0 l/m 2 min 0 min 669 W/m 23,0 km/h (4 Bft) 95,74 %
16.09.2017 12:26 16,1 C 21,7 C 18,9 C 71 % 0 lf 1010,0 hPa 0,0 l/m 2 min 0 min 670 W/m 18,8 km/h (3 Bft) 100,00 %
16.09.2017 12:28 16,2 C 23,3 C 20,0 C 72 % 0 lf 1010,0 hPa 0,0 l/m 2 min 0 min 672 W/m 16,7 km/h (3 Bft) 97,83 %
16.09.2017 12:30 16,2 C 23,9 C 20,6 C 71 % 0 lf 1010,0 hPa 0,0 l/m 2 min 0 min 673 W/m 25,1 km/h (4 Bft) 97,87 %
16.09.2017 12:32 16,2 C 23,3 C 20,6 C 71 % 0 lf 1010,0 hPa 0,0 l/m 2 min 0 min 675 W/m 23,0 km/h (4 Bft) 95,74 %
16.09.2017 12:34 16,3 C 23,3 C 21,1 C 70 % 0 lf 1010,0 hPa 0,0 l/m 2 min 0 min 676 W/m 20,9 km/h (4 Bft) 100,00 %
16.09.2017 12:36 16,3 C 25,0 C 21,1 C 70 % 0 lf 1009,9 hPa 0,0 l/m 2 min 0 min 677 W/m 25,1 km/h (4 Bft) 97,87 %
16.09.2017 12:38 16,4 C 25,6 C 22,2 C 71 % 0 lf 1009,9 hPa 0,0 l/m 2 min 0 min 817 W/m 18,8 km/h (3 Bft) 95,74 %
16.09.2017 12:40 16,5 C 24,4 C 21,7 C 70 % 0 lf 1009,9 hPa 0,0 l/m 2 min 0 min 680 W/m 16,7 km/h (3 Bft) 100,00 %
16.09.2017 12:42 16,6 C 25,0 C 21,7 C 70 % 0 lf 1010,0 hPa 0,0 l/m 2 min 0 min 681 W/m 14,6 km/h (3 Bft) 100,00 %
16.09.2017 12:44 16,7 C 25,6 C 21,7 C 70 % 0 lf 1009,9 hPa 0,0 l/m 2 min 0 min 682 W/m 16,7 km/h (3 Bft) 97,87 %
16.09.2017 12:46 16,8 C 25,6 C 20,0 C 70 % 0 lf 1010,0 hPa 0,0 l/m 2 min 0 min 683 W/m 16,7 km/h (3 Bft) 100,00 %
16.09.2017 12:48 16,9 C 25,6 C 19,4 C 70 % 0 lf 1009,9 hPa 0,0 l/m 2 min 0 min 684 W/m 16,7 km/h (3 Bft) 100,00 %
16.09.2017 12:50 17,0 C 26,7 C 18,9 C 69 % 0 lf 1009,9 hPa 0,0 l/m 2 min 0 min 685 W/m 16,7 km/h (3 Bft) 95,74 %
16.09.2017 12:52 17,1 C 25,0 C 18,3 C 68 % 0 lf 1009,9 hPa 0,0 l/m 2 min 0 min 686 W/m 20,9 km/h (4 Bft) 97,83 %
16.09.2017 12:54 17,1 C 22,8 C 17,8 C 67 % 0 lf 1009,9 hPa 0,0 l/m 2 min 0 min 687 W/m 14,6 km/h (3 Bft) 100,00 %
16.09.2017 12:56 17,1 C 23,9 C 17,8 C 67 % 0 lf 1009,9 hPa 0,0 l/m 2 min 0 min 688 W/m 16,7 km/h (3 Bft) 93,62 %
16.09.2017 12:58 17,1 C 23,9 C 17,8 C 67 % 0 lf 1009,9 hPa 0,0 l/m 2 min 0 min 689 W/m 12,6 km/h (3 Bft) 97,87 %
16.09.2017 13:00 17,2 C 23,9 C 17,8 C 68 % 0 lf 1009,9 hPa 0,0 l/m 2 min 0 min 690 W/m 18,8 km/h (3 Bft) 97,87 %
16.09.2017 13:02 17,2 C 24,4 C 17,8 C 67 % 0 lf 1009,9 hPa 0,0 l/m 2 min 0 min 690 W/m 16,7 km/h (3 Bft) 95,74 %
16.09.2017 13:04 17,2 C 26,7 C 17,8 C 68 % 0 lf 1009,8 hPa 0,0 l/m 2 min 0 min 889 W/m 20,9 km/h (4 Bft) 97,83 %
16.09.2017 13:06 17,3 C 22,2 C 17,8 C 67 % 0 lf 1009,9 hPa 0,0 l/m 2 min 0 min 494 W/m 12,6 km/h (3 Bft) 95,74 %
16.09.2017 13:08 17,2 C 21,7 C 17,2 C 67 % 0 lf 1009,8 hPa 0,0 l/m 0 min 0 min 279 W/m 20,9 km/h (4 Bft) 97,87 %
16.09.2017 13:10 17,2 C 23,9 C 17,2 C 68 % 0 lf 1009,8 hPa 0,0 l/m 0 min 0 min 298 W/m 12,6 km/h (3 Bft) 97,87 %
16.09.2017 13:12 17,3 C 24,4 C 17,8 C 69 % 0 lf 1009,8 hPa 0,0 l/m 2 min 0 min 830 W/m 14,6 km/h (3 Bft) 97,87 %
16.09.2017 13:14 17,4 C 21,7 C 17,8 C 69 % 0 lf 1009,8 hPa 0,0 l/m 2 min 0 min 366 W/m 23,0 km/h (4 Bft) 95,74 %
16.09.2017 13:16 17,3 C 18,3 C 16,7 C 65 % 0 lf 1009,8 hPa 0,0 l/m 0 min 0 min 155 W/m 23,0 km/h (4 Bft) 95,65 %
16.09.2017 13:18 17,2 C 18,3 C 16,1 C 65 % 0 lf 1009,8 hPa 0,0 l/m 0 min 0 min 147 W/m 18,8 km/h (3 Bft) 95,74 %
16.09.2017 13:20 17,0 C 19,4 C 16,1 C 66 % 0 lf 1009,8 hPa 0,0 l/m 2 min 0 min 614 W/m 23,0 km/h (4 Bft) 93,62 %
16.09.2017 13:22 16,9 C 21,7 C 16,1 C 65 % 0 lf 1009,8 hPa 0,0 l/m 2 min 0 min 776 W/m 18,8 km/h (3 Bft) 95,74 %
16.09.2017 13:24 16,9 C 24,4 C 16,1 C 66 % 0 lf 1009,8 hPa 0,0 l/m 2 min 0 min 731 W/m 20,9 km/h (4 Bft) 93,62 %
16.09.2017 13:26 16,9 C 23,9 C 16,1 C 66 % 0 lf 1009,8 hPa 0,0 l/m 2 min 0 min 732 W/m 27,2 km/h (4 Bft) 95,65 %
16.09.2017 13:28 16,9 C 21,7 C 16,1 C 65 % 0 lf 1009,8 hPa 0,0 l/m 2 min 0 min 733 W/m 25,1 km/h (4 Bft) 95,74 %
16.09.2017 13:30 16,8 C 19,4 C 15,6 C 65 % 0 lf 1009,8 hPa 0,0 l/m 0 min 0 min 143 W/m 20,9 km/h (4 Bft) 95,74 %
16.09.2017 13:32 16,7 C 18,9 C 15,6 C 65 % 0 lf 1009,9 hPa 0,0 l/m 0 min 0 min 168 W/m 16,7 km/h (3 Bft) 95,74 %
16.09.2017 13:34 16,7 C 18,9 C 15,6 C 66 % 0 lf 1009,9 hPa 0,0 l/m 0 min 0 min 192 W/m 16,7 km/h (3 Bft) 93,62 %
16.09.2017 13:36 16,6 C 18,9 C 15,6 C 66 % 0 lf 1009,8 hPa 0,0 l/m 0 min 0 min 223 W/m 20,9 km/h (4 Bft) 93,62 %
16.09.2017 13:38 16,5 C 17,8 C 15,6 C 67 % 0 lf 1009,9 hPa 0,0 l/m 0 min 0 min 296 W/m 23,0 km/h (4 Bft) 95,65 %
16.09.2017 13:40 16,4 C 17,2 C 15,0 C 67 % 0 lf 1009,9 hPa 0,0 l/m 0 min 0 min 137 W/m 25,1 km/h (4 Bft) 95,74 %
16.09.2017 13:42 16,3 C 16,1 C 15,0 C 66 % 0 lf 1009,9 hPa 0,0 l/m 0 min 0 min 137 W/m 16,7 km/h (3 Bft) 93,62 %
16.09.2017 13:44 16,1 C 16,1 C 14,4 C 67 % 0 lf 1009,9 hPa 0,0 l/m 0 min 0 min 125 W/m 14,6 km/h (3 Bft) 95,74 %
16.09.2017 13:46 16,1 C 16,1 C 14,4 C 68 % 0 lf 1009,9 hPa 0,0 l/m 0 min 0 min 132 W/m 10,5 km/h (2 Bft) 100,00 %
16.09.2017 13:48 15,9 C 16,1 C 14,4 C 68 % 0 lf 1009,8 hPa 0,0 l/m 0 min 0 min 153 W/m 16,7 km/h (3 Bft) 95,74 %
16.09.2017 13:50 15,8 C 16,1 C 14,4 C 68 % 0 lf 1009,8 hPa 0,0 l/m 0 min 0 min 141 W/m 14,6 km/h (3 Bft) 97,83 %
16.09.2017 13:52 15,8 C 16,1 C 14,4 C 69 % 0 lf 1009,9 hPa 0,0 l/m 0 min 0 min 156 W/m 10,5 km/h (2 Bft) 97,87 %
16.09.2017 13:54 15,7 C 16,1 C 14,4 C 69 % 0 lf 1009,8 hPa 0,0 l/m 0 min 0 min 183 W/m 16,7 km/h (3 Bft) 97,87 %
16.09.2017 13:56 15,7 C 17,8 C 15,0 C 69 % 0 lf 1009,8 hPa 0,0 l/m 0 min 0 min 204 W/m 20,9 km/h (4 Bft) 97,87 %
16.09.2017 13:58 15,6 C 20,6 C 15,0 C 69 % 0 lf 1009,8 hPa 0,0 l/m 2 min 0 min 694 W/m 20,9 km/h (4 Bft) 97,87 %
16.09.2017 14:00 15,7 C 22,8 C 15,6 C 69 % 0 lf 1009,8 hPa 0,0 l/m 2 min 0 min 689 W/m 27,2 km/h (4 Bft) 97,87 %
16.09.2017 14:02 15,8 C 23,9 C 15,6 C 70 % 0 lf 1009,8 hPa 0,0 l/m 2 min 0 min 688 W/m 23,0 km/h (4 Bft) 95,65 %
16.09.2017 14:04 15,9 C 23,9 C 16,1 C 70 % 0 lf 1009,8 hPa 0,0 l/m 2 min 0 min 708 W/m 23,0 km/h (4 Bft) 95,74 %
16.09.2017 14:06 16,1 C 22,8 C 15,6 C 69 % 0 lf 1009,7 hPa 0,0 l/m 2 min 0 min 718 W/m 23,0 km/h (4 Bft) 91,49 %
16.09.2017 14:08 16,1 C 23,3 C 15,6 C 68 % 0 lf 1009,7 hPa 0,0 l/m 2 min 0 min 722 W/m 12,6 km/h (3 Bft) 95,74 %
16.09.2017 14:10 16,2 C 22,2 C 15,6 C 68 % 0 lf 1009,7 hPa 0,0 l/m 2 min 0 min 455 W/m 23,0 km/h (4 Bft) 95,74 %
16.09.2017 14:12 16,3 C 20,6 C 15,6 C 68 % 0 lf 1009,7 hPa 0,0 l/m 0 min 0 min 199 W/m 14,6 km/h (3 Bft) 91,49 %
16.09.2017 14:14 16,3 C 19,4 C 15,6 C 69 % 0 lf 1009,7 hPa 0,0 l/m 0 min 0 min 153 W/m 16,7 km/h (3 Bft) 97,83 %
16.09.2017 14:16 16,3 C 18,3 C 15,0 C 67 % 0 lf 1009,7 hPa 0,0 l/m 0 min 0 min 155 W/m 23,0 km/h (4 Bft) 95,74 %
16.09.2017 14:18 16,3 C 18,9 C 15,0 C 67 % 0 lf 1009,7 hPa 0,0 l/m 0 min 0 min 186 W/m 18,8 km/h (3 Bft) 93,62 %
16.09.2017 14:20 16,3 C 19,4 C 15,0 C 67 % 0 lf 1009,7 hPa 0,0 l/m 0 min 0 min 186 W/m 14,6 km/h (3 Bft) 93,62 %
16.09.2017 14:22 16,3 C 18,9 C 15,0 C 67 % 0 lf 1009,7 hPa 0,0 l/m 0 min 0 min 186 W/m 23,0 km/h (4 Bft) 93,62 %
16.09.2017 14:24 16,3 C 18,3 C 15,0 C 66 % 0 lf 1009,7 hPa 0,0 l/m 0 min 0 min 186 W/m 20,9 km/h (4 Bft) 95,74 %
16.09.2017 14:26 16,2 C 17,8 C 15,0 C 67 % 0 lf 1009,7 hPa 0,0 l/m 0 min 0 min 194 W/m 18,8 km/h (3 Bft) 95,65 %
16.09.2017 14:28 16,2 C 18,9 C 15,6 C 67 % 0 lf 1009,7 hPa 0,0 l/m 0 min 0 min 213 W/m 14,6 km/h (3 Bft) 95,74 %
16.09.2017 14:30 16,2 C 20,0 C 15,6 C 67 % 0 lf 1009,7 hPa 0,0 l/m 2 min 0 min 341 W/m 14,6 km/h (3 Bft) 95,74 %
16.09.2017 14:32 16,2 C 20,0 C 16,1 C 68 % 0 lf 1009,7 hPa 0,0 l/m 2 min 0 min 415 W/m 14,6 km/h (3 Bft) 93,62 %
16.09.2017 14:34 16,3 C 20,0 C 16,1 C 68 % 0 lf 1009,7 hPa 0,0 l/m 2 min 0 min 360 W/m 25,1 km/h (4 Bft) 95,74 %
16.09.2017 14:36 16,3 C 19,4 C 16,1 C 67 % 0 lf 1009,6 hPa 0,0 l/m 0 min 0 min 284 W/m 14,6 km/h (3 Bft) 95,65 %
16.09.2017 14:38 16,3 C 18,9 C 16,7 C 67 % 0 lf 1009,5 hPa 0,0 l/m 2 min 0 min 324 W/m 16,7 km/h (3 Bft) 93,62 %
16.09.2017 14:40 16,3 C 18,9 C 16,7 C 66 % 0 lf 1009,5 hPa 0,0 l/m 0 min 0 min 299 W/m 23,0 km/h (4 Bft) 91,49 %
16.09.2017 14:42 16,2 C 18,3 C 16,1 C 65 % 0 lf 1009,5 hPa 0,0 l/m 0 min 0 min 275 W/m 18,8 km/h (3 Bft) 95,74 %
16.09.2017 14:44 16,2 C 20,6 C 16,1 C 66 % 0 lf 1009,5 hPa 0,0 l/m 0 min 0 min 271 W/m 16,7 km/h (3 Bft) 95,74 %
16.09.2017 14:46 16,2 C 20,0 C 16,1 C 66 % 0 lf 1009,5 hPa 0,0 l/m 0 min 0 min 271 W/m 14,6 km/h (3 Bft) 91,49 %
16.09.2017 14:48 16,2 C 20,6 C 16,1 C 66 % 0 lf 1009,4 hPa 0,0 l/m 0 min 0 min 271 W/m 16,7 km/h (3 Bft) 97,83 %
16.09.2017 14:50 16,3 C 21,1 C 16,1 C 66 % 0 lf 1009,4 hPa 0,0 l/m 2 min 0 min 329 W/m 14,6 km/h (3 Bft) 97,87 %
16.09.2017 14:52 16,3 C 21,1 C 16,7 C 66 % 0 lf 1009,4 hPa 0,0 l/m 2 min 0 min 359 W/m 14,6 km/h (3 Bft) 95,74 %
16.09.2017 14:54 16,4 C 21,1 C 16,7 C 66 % 0 lf 1009,4 hPa 0,0 l/m 2 min 0 min 500 W/m 16,7 km/h (3 Bft) 91,49 %
16.09.2017 14:56 16,4 C 20,6 C 16,7 C 66 % 0 lf 1009,5 hPa 0,0 l/m 2 min 0 min 322 W/m 18,8 km/h (3 Bft) 95,74 %
16.09.2017 14:58 16,5 C 20,6 C 16,7 C 67 % 0 lf 1009,5 hPa 0,0 l/m 2 min 0 min 345 W/m 20,9 km/h (4 Bft) 95,74 %
16.09.2017 15:00 16,5 C 21,1 C 16,7 C 67 % 0 lf 1009,4 hPa 0,0 l/m 2 min 0 min 389 W/m 29,3 km/h (5 Bft) 100,00 %
16.09.2017 15:02 16,6 C 23,3 C 17,2 C 68 % 0 lf 1009,5 hPa 0,0 l/m 2 min 0 min 614 W/m 16,7 km/h (3 Bft) 97,87 %
16.09.2017 15:04 16,7 C 25,0 C 17,2 C 68 % 0 lf 1009,4 hPa 0,0 l/m 2 min 0 min 764 W/m 12,6 km/h (3 Bft) 100,00 %
16.09.2017 15:06 16,8 C 25,6 C 17,8 C 69 % 0 lf 1009,5 hPa 0,0 l/m 2 min 0 min 711 W/m 18,8 km/h (3 Bft) 97,87 %
16.09.2017 15:08 16,9 C 23,9 C 17,2 C 66 % 0 lf 1009,3 hPa 0,0 l/m 2 min 0 min 685 W/m 18,8 km/h (3 Bft) 97,87 %
16.09.2017 15:10 16,9 C 23,9 C 17,2 C 65 % 0 lf 1009,3 hPa 0,0 l/m 2 min 0 min 680 W/m 16,7 km/h (3 Bft) 100,00 %
16.09.2017 15:12 17,0 C 22,8 C 16,7 C 64 % 0 lf 1009,3 hPa 0,0 l/m 2 min 0 min 686 W/m 16,7 km/h (3 Bft) 97,83 %
16.09.2017 15:14 17,1 C 21,7 C 16,7 C 64 % 0 lf 1009,3 hPa 0,0 l/m 2 min 0 min 331 W/m 18,8 km/h (3 Bft) 97,87 %
16.09.2017 15:16 17,1 C 22,2 C 17,2 C 65 % 0 lf 1009,3 hPa 0,0 l/m 2 min 0 min 336 W/m 16,7 km/h (3 Bft) 100,00 %
16.09.2017 15:18 17,2 C 23,9 C 17,2 C 65 % 0 lf 1009,3 hPa 0,0 l/m 2 min 0 min 602 W/m 18,8 km/h (3 Bft) 95,74 %
16.09.2017 15:20 17,3 C 25,0 C 17,8 C 66 % 0 lf 1009,4 hPa 0,0 l/m 2 min 0 min 618 W/m 18,8 km/h (3 Bft) 100,00 %
16.09.2017 15:22 17,4 C 24,4 C 17,8 C 65 % 0 lf 1009,3 hPa 0,0 l/m 2 min 0 min 616 W/m 14,6 km/h (3 Bft) 97,87 %
16.09.2017 15:24 17,4 C 23,9 C 17,8 C 63 % 0 lf 1009,3 hPa 0,0 l/m 2 min 0 min 613 W/m 14,6 km/h (3 Bft) 100,00 %
16.09.2017 15:26 17,6 C 25,0 C 17,2 C 63 % 0 lf 1009,3 hPa 0,0 l/m 2 min 0 min 610 W/m 20,9 km/h (4 Bft) 100,00 %
16.09.2017 15:28 17,6 C 24,4 C 17,2 C 63 % 0 lf 1009,2 hPa 0,0 l/m 2 min 0 min 607 W/m 10,5 km/h (2 Bft) 93,62 %
16.09.2017 15:30 17,7 C 23,9 C 16,7 C 62 % 0 lf 1009,3 hPa 0,0 l/m 2 min 0 min 604 W/m 10,5 km/h (2 Bft) 100,00 %
16.09.2017 15:32 17,7 C 23,3 C 16,7 C 63 % 0 lf 1009,3 hPa 0,0 l/m 2 min 0 min 601 W/m 16,7 km/h (3 Bft) 97,87 %
16.09.2017 15:34 17,7 C 22,8 C 16,7 C 62 % 0 lf 1009,3 hPa 0,0 l/m 2 min 0 min 598 W/m 14,6 km/h (3 Bft) 97,87 %
16.09.2017 15:36 17,7 C 22,2 C 16,7 C 62 % 0 lf 1009,3 hPa 0,0 l/m 2 min 0 min 681 W/m 18,8 km/h (3 Bft) 97,83 %
16.09.2017 15:38 17,7 C 22,8 C 16,7 C 61 % 0 lf 1009,3 hPa 0,0 l/m 0 min 0 min 218 W/m 18,8 km/h (3 Bft) 95,74 %
16.09.2017 15:40 17,7 C 23,3 C 16,7 C 62 % 0 lf 1009,3 hPa 0,0 l/m 0 min 0 min 218 W/m 16,7 km/h (3 Bft) 95,74 %
16.09.2017 15:42 17,8 C 23,9 C 16,7 C 62 % 0 lf 1009,3 hPa 0,0 l/m 0 min 0 min 218 W/m 12,6 km/h (3 Bft) 97,87 %
16.09.2017 15:44 17,8 C 23,9 C 16,7 C 62 % 0 lf 1009,3 hPa 0,0 l/m 2 min 0 min 495 W/m 12,6 km/h (3 Bft) 97,87 %
16.09.2017 15:46 17,8 C 22,2 C 16,7 C 62 % 0 lf 1009,3 hPa 0,0 l/m 2 min 0 min 542 W/m 14,6 km/h (3 Bft) 93,62 %
16.09.2017 15:48 17,8 C 21,7 C 16,7 C 61 % 0 lf 1009,3 hPa 0,0 l/m 2 min 0 min 556 W/m 16,7 km/h (3 Bft) 95,65 %
16.09.2017 15:50 17,8 C 22,8 C 16,7 C 61 % 0 lf 1009,2 hPa 0,0 l/m 2 min 0 min 568 W/m 10,5 km/h (2 Bft) 97,87 %
16.09.2017 15:52 17,8 C 24,4 C 17,2 C 60 % 0 lf 1009,2 hPa 0,0 l/m 2 min 0 min 570 W/m 10,5 km/h (2 Bft) 97,87 %
16.09.2017 15:54 17,8 C 24,4 C 17,8 C 62 % 0 lf 1009,2 hPa 0,0 l/m 2 min 0 min 566 W/m 14,6 km/h (3 Bft) 97,87 %
16.09.2017 15:56 17,8 C 23,3 C 17,2 C 62 % 0 lf 1009,3 hPa 0,0 l/m 2 min 0 min 563 W/m 8,4 km/h (2 Bft) 97,87 %
16.09.2017 15:58 17,9 C 23,3 C 17,2 C 63 % 0 lf 1009,2 hPa 0,0 l/m 2 min 0 min 499 W/m 8,4 km/h (2 Bft) 97,83 %
16.09.2017 16:00 17,9 C 23,3 C 17,2 C 63 % 0 lf 1009,2 hPa 0,0 l/m 2 min 0 min 556 W/m 8,4 km/h (2 Bft) 97,87 %
16.09.2017 16:02 18,0 C 23,9 C 17,8 C 63 % 0 lf 1009,2 hPa 0,0 l/m 2 min 0 min 552 W/m 10,5 km/h (2 Bft) 97,87 %
16.09.2017 16:04 18,1 C 24,4 C 17,8 C 64 % 0 lf 1009,2 hPa 0,0 l/m 2 min 0 min 549 W/m 8,4 km/h (2 Bft) 97,87 %
16.09.2017 16:06 18,1 C 25,0 C 17,8 C 64 % 0 lf 1009,2 hPa 0,0 l/m 2 min 0 min 545 W/m 14,6 km/h (3 Bft) 95,74 %
16.09.2017 16:08 18,2 C 25,0 C 17,8 C 61 % 0 lf 1009,1 hPa 0,0 l/m 2 min 0 min 542 W/m 14,6 km/h (3 Bft) 93,62 %
16.09.2017 16:10 18,2 C 25,0 C 17,2 C 61 % 0 lf 1009,1 hPa 0,0 l/m 2 min 0 min 538 W/m 16,7 km/h (3 Bft) 97,83 %
16.09.2017 16:12 18,3 C 23,9 C 17,2 C 61 % 0 lf 1009,1 hPa 0,0 l/m 2 min 0 min 534 W/m 8,4 km/h (2 Bft) 97,87 %
16.09.2017 16:14 18,3 C 22,8 C 16,7 C 61 % 0 lf 1009,2 hPa 0,0 l/m 2 min 0 min 530 W/m 10,5 km/h (2 Bft) 100,00 %
16.09.2017 16:16 18,3 C 21,7 C 16,7 C 61 % 0 lf 1009,1 hPa 0,0 l/m 2 min 0 min 552 W/m 14,6 km/h (3 Bft) 97,87 %
16.09.2017 16:18 18,3 C 22,2 C 16,7 C 61 % 0 lf 1009,1 hPa 0,0 l/m 2 min 0 min 523 W/m 14,6 km/h (3 Bft) 97,87 %
16.09.2017 16:20 18,3 C 20,6 C 16,1 C 62 % 0 lf 1009,1 hPa 0,0 l/m 2 min 0 min 519 W/m 16,7 km/h (3 Bft) 95,74 %
16.09.2017 16:22 18,2 C 18,9 C 15,6 C 60 % 0 lf 1009,1 hPa 0,0 l/m 2 min 0 min 573 W/m 14,6 km/h (3 Bft) 97,83 %
16.09.2017 16:24 18,2 C 18,3 C 15,6 C 60 % 0 lf 1009,1 hPa 0,0 l/m 2 min 0 min 580 W/m 10,5 km/h (2 Bft) 100,00 %
16.09.2017 16:26 18,1 C 17,8 C 15,6 C 60 % 0 lf 1009,1 hPa 0,0 l/m 2 min 0 min 594 W/m 10,5 km/h (2 Bft) 100,00 %
16.09.2017 16:28 18,0 C 17,2 C 15,6 C 60 % 0 lf 1009,2 hPa 0,0 l/m 2 min 0 min 619 W/m 12,6 km/h (3 Bft) 100,00 %
16.09.2017 16:30 17,9 C 18,9 C 15,6 C 61 % 0 lf 1009,1 hPa 0,0 l/m 2 min 0 min 660 W/m 8,4 km/h (2 Bft) 95,74 %
16.09.2017 16:32 17,8 C 20,6 C 16,1 C 62 % 0 lf 1009,1 hPa 0,0 l/m 2 min 0 min 495 W/m 8,4 km/h (2 Bft) 100,00 %
16.09.2017 16:34 17,8 C 22,2 C 16,7 C 64 % 0 lf 1009,1 hPa 0,0 l/m 2 min 0 min 490 W/m 10,5 km/h (2 Bft) 100,00 %
16.09.2017 16:36 17,9 C 22,8 C 16,7 C 64 % 0 lf 1009,0 hPa 0,0 l/m 2 min 0 min 486 W/m 10,5 km/h (2 Bft) 100,00 %
16.09.2017 16:38 17,9 C 21,1 C 16,7 C 64 % 0 lf 1009,1 hPa 0,0 l/m 2 min 0 min 482 W/m 10,5 km/h (2 Bft) 95,74 %
16.09.2017 16:40 17,9 C 20,0 C 16,7 C 64 % 0 lf 1009,1 hPa 0,0 l/m 2 min 0 min 478 W/m 10,5 km/h (2 Bft) 95,74 %
16.09.2017 16:42 17,9 C 20,0 C 16,7 C 64 % 0 lf 1009,0 hPa 0,0 l/m 2 min 0 min 625 W/m 8,4 km/h (2 Bft) 95,74 %
16.09.2017 16:44 17,8 C 18,3 C 16,1 C 63 % 0 lf 1009,1 hPa 0,0 l/m 2 min 0 min 623 W/m 16,7 km/h (3 Bft) 97,87 %
16.09.2017 16:46 17,7 C 17,8 C 15,6 C 63 % 0 lf 1009,1 hPa 0,0 l/m 2 min 0 min 465 W/m 10,5 km/h (2 Bft) 93,48 %
16.09.2017 16:48 17,7 C 19,4 C 16,1 C 63 % 0 lf 1009,1 hPa 0,0 l/m 2 min 0 min 460 W/m 12,6 km/h (3 Bft) 93,62 %
16.09.2017 16:50 17,7 C 20,6 C 16,1 C 64 % 0 lf 1009,1 hPa 0,0 l/m 2 min 0 min 456 W/m 10,5 km/h (2 Bft) 89,36 %
16.09.2017 16:52 17,6 C 21,1 C 16,1 C 64 % 0 lf 1009,1 hPa 0,0 l/m 2 min 0 min 452 W/m 8,4 km/h (2 Bft) 93,62 %
16.09.2017 16:54 17,7 C 21,7 C 16,1 C 65 % 0 lf 1009,1 hPa 0,0 l/m 2 min 0 min 447 W/m 14,6 km/h (3 Bft) 91,49 %
16.09.2017 16:56 17,7 C 21,7 C 16,1 C 64 % 0 lf 1009,1 hPa 0,0 l/m 2 min 0 min 443 W/m 12,6 km/h (3 Bft) 93,62 %
16.09.2017 16:58 17,7 C 22,2 C 16,1 C 64 % 0 lf 1009,1 hPa 0,0 l/m 2 min 0 min 438 W/m 12,6 km/h (3 Bft) 93,48 %
16.09.2017 17:00 17,8 C 21,1 C 16,1 C 63 % 0 lf 1009,1 hPa 0,0 l/m 2 min 0 min 433 W/m 10,5 km/h (2 Bft) 91,49 %
16.09.2017 17:02 17,8 C 21,1 C 16,7 C 63 % 0 lf 1009,0 hPa 0,0 l/m 2 min 0 min 429 W/m 14,6 km/h (3 Bft) 91,49 %
16.09.2017 17:04 17,9 C 20,0 C 16,1 C 63 % 0 lf 1009,0 hPa 0,0 l/m 2 min 0 min 424 W/m 16,7 km/h (3 Bft) 93,62 %
16.09.2017 17:06 17,9 C 19,4 C 16,1 C 63 % 0 lf 1009,0 hPa 0,0 l/m 2 min 0 min 419 W/m 16,7 km/h (3 Bft) 93,62 %
16.09.2017 17:08 17,9 C 19,4 C 16,1 C 62 % 0 lf 1009,0 hPa 0,0 l/m 2 min 0 min 415 W/m 16,7 km/h (3 Bft) 86,96 %
16.09.2017 17:10 17,9 C 18,9 C 16,1 C 63 % 0 lf 1009,1 hPa 0,0 l/m 2 min 0 min 410 W/m 14,6 km/h (3 Bft) 91,49 %
16.09.2017 17:12 17,9 C 18,9 C 16,1 C 62 % 0 lf 1009,1 hPa 0,0 l/m 2 min 0 min 405 W/m 18,8 km/h (3 Bft) 89,36 %
16.09.2017 17:14 17,9 C 18,3 C 16,1 C 62 % 0 lf 1009,1 hPa 0,0 l/m 2 min 0 min 401 W/m 20,9 km/h (4 Bft) 91,49 %
16.09.2017 17:16 17,8 C 18,3 C 16,1 C 62 % 0 lf 1009,1 hPa 0,0 l/m 2 min 0 min 396 W/m 10,5 km/h (2 Bft) 93,62 %
16.09.2017 17:18 17,8 C 17,8 C 16,1 C 61 % 0 lf 1009,1 hPa 0,0 l/m 2 min 0 min 391 W/m 12,6 km/h (3 Bft) 93,62 %
16.09.2017 17:20 17,7 C 17,8 C 15,6 C 62 % 0 lf 1009,2 hPa 0,0 l/m 2 min 0 min 386 W/m 12,6 km/h (3 Bft) 93,48 %
16.09.2017 17:22 17,7 C 17,2 C 15,6 C 62 % 0 lf 1009,2 hPa 0,0 l/m 2 min 0 min 381 W/m 14,6 km/h (3 Bft) 93,62 %
16.09.2017 17:24 17,6 C 17,2 C 15,0 C 63 % 0 lf 1009,1 hPa 0,0 l/m 2 min 0 min 376 W/m 12,6 km/h (3 Bft) 93,62 %
16.09.2017 17:26 17,5 C 17,2 C 15,0 C 63 % 0 lf 1009,2 hPa 0,0 l/m 2 min 0 min 371 W/m 10,5 km/h (2 Bft) 95,74 %
16.09.2017 17:28 17,4 C 17,2 C 15,0 C 63 % 0 lf 1009,2 hPa 0,0 l/m 2 min 0 min 366 W/m 14,6 km/h (3 Bft) 93,62 %
16.09.2017 17:30 17,3 C 17,2 C 15,0 C 64 % 0 lf 1009,2 hPa 0,0 l/m 2 min 0 min 361 W/m 10,5 km/h (2 Bft) 91,49 %
16.09.2017 17:32 17,2 C 17,2 C 15,0 C 64 % 0 lf 1009,2 hPa 0,0 l/m 2 min 0 min 356 W/m 8,4 km/h (2 Bft) 95,65 %
16.09.2017 17:34 17,2 C 17,2 C 15,0 C 64 % 0 lf 1009,2 hPa 0,0 l/m 2 min 0 min 351 W/m 8,4 km/h (2 Bft) 95,74 %
16.09.2017 17:36 17,2 C 17,2 C 15,6 C 65 % 0 lf 1009,3 hPa 0,0 l/m 2 min 0 min 346 W/m 8,4 km/h (2 Bft) 95,74 %
16.09.2017 17:38 17,2 C 17,2 C 15,6 C 65 % 0 lf 1009,2 hPa 0,0 l/m 2 min 0 min 341 W/m 10,5 km/h (2 Bft) 97,87 %
16.09.2017 17:40 17,1 C 17,2 C 15,6 C 64 % 0 lf 1009,3 hPa 0,0 l/m 2 min 0 min 336 W/m 12,6 km/h (3 Bft) 97,87 %
16.09.2017 17:42 17,1 C 17,2 C 15,6 C 65 % 0 lf 1009,3 hPa 0,0 l/m 2 min 0 min 331 W/m 12,6 km/h (3 Bft) 97,87 %
16.09.2017 17:44 17,1 C 17,2 C 15,6 C 64 % 0 lf 1009,3 hPa 0,0 l/m 2 min 0 min 326 W/m 12,6 km/h (3 Bft) 97,83 %
16.09.2017 17:46 17,1 C 17,2 C 15,6 C 65 % 0 lf 1009,3 hPa 0,0 l/m 2 min 0 min 320 W/m 12,6 km/h (3 Bft) 97,87 %
16.09.2017 17:48 17,1 C 17,2 C 15,6 C 65 % 0 lf 1009,3 hPa 0,0 l/m 2 min 0 min 315 W/m 10,5 km/h (2 Bft) 100,00 %
16.09.2017 17:50 17,1 C 17,8 C 16,1 C 66 % 0 lf 1009,3 hPa 0,0 l/m 2 min 0 min 310 W/m 12,6 km/h (3 Bft) 97,87 %
16.09.2017 17:52 17,1 C 17,8 C 16,1 C 66 % 0 lf 1009,3 hPa 0,0 l/m 2 min 0 min 305 W/m 12,6 km/h (3 Bft) 100,00 %
16.09.2017 17:54 17,1 C 17,8 C 16,1 C 65 % 0 lf 1009,3 hPa 0,0 l/m 2 min 0 min 300 W/m 10,5 km/h (2 Bft) 100,00 %
16.09.2017 17:56 17,1 C 17,2 C 16,1 C 64 % 0 lf 1009,4 hPa 0,0 l/m 2 min 0 min 294 W/m 18,8 km/h (3 Bft) 97,83 %
16.09.2017 17:58 17,1 C 17,2 C 16,1 C 64 % 0 lf 1009,3 hPa 0,0 l/m 2 min 0 min 289 W/m 12,6 km/h (3 Bft) 100,00 %
16.09.2017 18:00 17,0 C 17,2 C 16,1 C 63 % 0 lf 1009,4 hPa 0,0 l/m 2 min 0 min 284 W/m 18,8 km/h (3 Bft) 100,00 %
16.09.2017 18:02 16,9 C 17,2 C 15,6 C 64 % 0 lf 1009,4 hPa 0,0 l/m 2 min 0 min 278 W/m 16,7 km/h (3 Bft) 97,87 %
16.09.2017 18:04 16,9 C 16,7 C 15,6 C 64 % 0 lf 1009,4 hPa 0,0 l/m 2 min 0 min 273 W/m 10,5 km/h (2 Bft) 97,87 %
16.09.2017 18:06 16,9 C 17,2 C 15,6 C 64 % 0 lf 1009,4 hPa 0,0 l/m 2 min 0 min 268 W/m 8,4 km/h (2 Bft) 97,87 %
16.09.2017 18:10 16,9 C 17,2 C 15,0 C 65 % 0 lf 1009,4 hPa 0,0 l/m 4 min 0 min 257 W/m 12,6 km/h (3 Bft) 97,62 %
16.09.2017 18:12 16,8 C 16,7 C 15,0 C 65 % 0 lf 1009,4 hPa 0,0 l/m 2 min 0 min 251 W/m 8,4 km/h (2 Bft) 93,62 %
16.09.2017 18:14 16,8 C 16,7 C 15,0 C 65 % 0 lf 1009,4 hPa 0,0 l/m 2 min 0 min 246 W/m 10,5 km/h (2 Bft) 97,87 %
16.09.2017 18:16 16,8 C 16,7 C 15,0 C 65 % 0 lf 1009,4 hPa 0,0 l/m 2 min 0 min 240 W/m 10,5 km/h (2 Bft) 97,87 %
16.09.2017 18:18 16,7 C 16,7 C 14,4 C 65 % 0 lf 1009,4 hPa 0,0 l/m 2 min 0 min 235 W/m 12,6 km/h (3 Bft) 97,87 %
16.09.2017 18:20 16,7 C 16,7 C 14,4 C 65 % 0 lf 1009,4 hPa 0,0 l/m 2 min 0 min 229 W/m 10,5 km/h (2 Bft) 96,55 %
16.09.2017 18:22 16,7 C 16,7 C 14,4 C 66 % 0 lf 1009,5 hPa 0,0 l/m 2 min 0 min 224 W/m 8,4 km/h (2 Bft) 97,14 %
16.09.2017 18:24 16,7 C 16,1 C 14,4 C 65 % 0 lf 1009,5 hPa 0,0 l/m 2 min 0 min 218 W/m 12,6 km/h (3 Bft) 95,74 %
16.09.2017 18:26 16,6 C 16,1 C 13,9 C 64 % 0 lf 1009,5 hPa 0,0 l/m 2 min 0 min 213 W/m 12,6 km/h (3 Bft) 93,62 %
16.09.2017 18:28 16,6 C 16,1 C 13,9 C 64 % 0 lf 1009,4 hPa 0,0 l/m 2 min 0 min 207 W/m 8,4 km/h (2 Bft) 97,87 %
16.09.2017 18:30 16,5 C 16,1 C 13,9 C 64 % 0 lf 1009,4 hPa 0,0 l/m 2 min 0 min 202 W/m 10,5 km/h (2 Bft) 97,87 %
16.09.2017 18:32 16,4 C 16,1 C 13,9 C 65 % 0 lf 1009,4 hPa 0,0 l/m 2 min 0 min 196 W/m 8,4 km/h (2 Bft) 97,87 %
16.09.2017 18:34 16,4 C 16,1 C 13,9 C 65 % 0 lf 1009,4 hPa 0,0 l/m 2 min 0 min 190 W/m 8,4 km/h (2 Bft) 97,83 %
16.09.2017 18:36 16,4 C 16,1 C 13,3 C 66 % 0 lf 1009,5 hPa 0,0 l/m 2 min 0 min 185 W/m 6,3 km/h (2 Bft) 91,49 %
16.09.2017 18:38 16,4 C 16,1 C 13,3 C 66 % 0 lf 1009,5 hPa 0,0 l/m 2 min 0 min 179 W/m 6,3 km/h (2 Bft) 97,87 %
16.09.2017 18:40 16,4 C 15,6 C 13,3 C 66 % 0 lf 1009,5 hPa 0,0 l/m 2 min 0 min 174 W/m 4,2 km/h (1 Bft) 97,87 %
16.09.2017 18:42 16,4 C 15,6 C 13,3 C 66 % 0 lf 1009,5 hPa 0,0 l/m 2 min 0 min 168 W/m 4,2 km/h (1 Bft) 100,00 %
16.09.2017 18:44 16,4 C 15,6 C 13,3 C 66 % 0 lf 1009,6 hPa 0,0 l/m 2 min 0 min 162 W/m 4,2 km/h (1 Bft) 100,00 %
16.09.2017 18:46 16,3 C 15,6 C 13,3 C 67 % 0 lf 1009,6 hPa 0,0 l/m 2 min 0 min 157 W/m 8,4 km/h (2 Bft) 95,74 %
16.09.2017 18:48 16,3 C 15,6 C 13,3 C 67 % 0 lf 1009,7 hPa 0,0 l/m 2 min 0 min 151 W/m 6,3 km/h (2 Bft) 100,00 %
16.09.2017 18:50 16,3 C 15,6 C 12,8 C 67 % 0 lf 1009,7 hPa 0,0 l/m 2 min 0 min 145 W/m 8,4 km/h (2 Bft) 100,00 %
16.09.2017 18:52 16,3 C 15,0 C 13,3 C 66 % 0 lf 1009,7 hPa 0,0 l/m 2 min 0 min 140 W/m 8,4 km/h (2 Bft) 97,14 %
16.09.2017 18:54 16,3 C 15,0 C 13,3 C 66 % 0 lf 1009,7 hPa 0,0 l/m 2 min 0 min 134 W/m 6,3 km/h (2 Bft) 100,00 %
16.09.2017 18:56 16,2 C 15,0 C 12,8 C 66 % 0 lf 1009,8 hPa 0,0 l/m 2 min 0 min 128 W/m 6,3 km/h (2 Bft) 100,00 %
16.09.2017 18:58 16,2 C 15,0 C 12,8 C 66 % 0 lf 1009,7 hPa 0,0 l/m 2 min 0 min 123 W/m 6,3 km/h (2 Bft) 100,00 %
16.09.2017 19:00 16,2 C 15,0 C 12,8 C 66 % 0 lf 1009,7 hPa 0,0 l/m 2 min 0 min 117 W/m 6,3 km/h (2 Bft) 100,00 %
16.09.2017 19:02 16,1 C 15,0 C 12,8 C 66 % 0 lf 1009,7 hPa 0,0 l/m 2 min 0 min 111 W/m 6,3 km/h (2 Bft) 97,87 %
16.09.2017 19:04 16,1 C 15,0 C 12,8 C 66 % 0 lf 1009,7 hPa 0,0 l/m 2 min 0 min 105 W/m 6,3 km/h (2 Bft) 97,87 %
16.09.2017 19:06 16,1 C 15,0 C 12,8 C 67 % 0 lf 1009,8 hPa 0,0 l/m 2 min 0 min 100 W/m 6,3 km/h (2 Bft) 95,74 %
16.09.2017 19:08 16,0 C 14,4 C 12,8 C 67 % 0 lf 1009,7 hPa 0,0 l/m 2 min 0 min 76 W/m 6,3 km/h (2 Bft) 100,00 %
16.09.2017 19:10 15,9 C 14,4 C 12,8 C 67 % 0 lf 1009,8 hPa 0,0 l/m 0 min 0 min 41 W/m 6,3 km/h (2 Bft) 100,00 %
16.09.2017 19:12 15,9 C 14,4 C 12,2 C 67 % 0 lf 1009,8 hPa 0,0 l/m 2 min 0 min 40 W/m 8,4 km/h (2 Bft) 97,87 %
16.09.2017 19:14 15,8 C 14,4 C 12,2 C 67 % 0 lf 1009,8 hPa 0,0 l/m 2 min 0 min 39 W/m 6,3 km/h (2 Bft) 97,87 %
16.09.2017 19:16 15,8 C 14,4 C 12,2 C 68 % 0 lf 1009,8 hPa 0,0 l/m 2 min 0 min 39 W/m 6,3 km/h (2 Bft) 100,00 %
16.09.2017 19:18 15,7 C 13,9 C 12,2 C 68 % 0 lf 1009,8 hPa 0,0 l/m 2 min 0 min 37 W/m 6,3 km/h (2 Bft) 100,00 %
16.09.2017 19:20 15,7 C 13,9 C 11,7 C 68 % 0 lf 1009,8 hPa 0,0 l/m 2 min 0 min 35 W/m 6,3 km/h (2 Bft) 100,00 %
16.09.2017 19:22 15,6 C 13,9 C 12,2 C 69 % 0 lf 1009,8 hPa 0,0 l/m 2 min 0 min 31 W/m 6,3 km/h (2 Bft) 97,14 %
16.09.2017 19:24 15,6 C 13,9 C 11,7 C 69 % 0 lf 1009,8 hPa 0,0 l/m 2 min 0 min 28 W/m 4,2 km/h (1 Bft) 97,87 %
16.09.2017 19:26 15,5 C 13,9 C 11,7 C 69 % 0 lf 1009,9 hPa 0,0 l/m 2 min 0 min 28 W/m 6,3 km/h (2 Bft) 97,87 %
16.09.2017 19:28 15,4 C 13,3 C 11,7 C 70 % 0 lf 1009,9 hPa 0,0 l/m 2 min 0 min 26 W/m 6,3 km/h (2 Bft) 95,74 %
16.09.2017 19:30 15,4 C 13,3 C 11,7 C 71 % 0 lf 1009,8 hPa 0,0 l/m 2 min 0 min 23 W/m 6,3 km/h (2 Bft) 95,74 %
16.09.2017 19:32 15,3 C 13,3 C 11,7 C 71 % 0 lf 1009,9 hPa 0,0 l/m 2 min 0 min 22 W/m 4,2 km/h (1 Bft) 97,83 %
16.09.2017 19:34 15,2 C 13,3 C 11,1 C 71 % 0 lf 1009,9 hPa 0,0 l/m 2 min 0 min 20 W/m 6,3 km/h (2 Bft) 93,62 %
16.09.2017 19:36 15,2 C 12,8 C 11,1 C 72 % 0 lf 1010,0 hPa 0,0 l/m 0 min 0 min 19 W/m 6,3 km/h (2 Bft) 97,87 %
16.09.2017 19:38 15,1 C 12,8 C 11,1 C 72 % 0 lf 1010,0 hPa 0,0 l/m 0 min 0 min 15 W/m 4,2 km/h (1 Bft) 97,87 %
16.09.2017 19:40 15,0 C 12,8 C 10,6 C 72 % 0 lf 1010,0 hPa 0,0 l/m 0 min 0 min 12 W/m 4,2 km/h (1 Bft) 95,74 %
16.09.2017 19:42 14,9 C 12,8 C 10,6 C 72 % 0 lf 1010,0 hPa 0,0 l/m 0 min 0 min 13 W/m 6,3 km/h (2 Bft) 95,74 %
16.09.2017 19:44 14,9 C 12,8 C 10,6 C 73 % 0 lf 1010,1 hPa 0,0 l/m 0 min 0 min 7 W/m 6,3 km/h (2 Bft) 93,48 %
16.09.2017 19:46 14,8 C 12,2 C 10,6 C 73 % 0 lf 1010,1 hPa 0,0 l/m 0 min 0 min 9 W/m 6,3 km/h (2 Bft) 93,62 %
16.09.2017 19:48 14,7 C 12,2 C 10,6 C 73 % 0 lf 1010,1 hPa 0,0 l/m 0 min 0 min 7 W/m 6,3 km/h (2 Bft) 97,87 %
16.09.2017 19:50 14,7 C 12,2 C 10,6 C 74 % 0 lf 1010,1 hPa 0,0 l/m 0 min 0 min 5 W/m 6,3 km/h (2 Bft) 96,61 %
16.09.2017 19:52 14,6 C 12,2 C 10,0 C 74 % 0 lf 1010,1 hPa 0,0 l/m 0 min 0 min 5 W/m 6,3 km/h (2 Bft) 94,29 %
16.09.2017 19:54 14,5 C 12,2 C 10,0 C 74 % 0 lf 1010,2 hPa 0,0 l/m 0 min 0 min 5 W/m 6,3 km/h (2 Bft) 95,74 %
16.09.2017 19:56 14,4 C 12,2 C 10,0 C 74 % 0 lf 1010,2 hPa 0,0 l/m 0 min 0 min 4 W/m 4,2 km/h (1 Bft) 93,48 %
16.09.2017 19:58 14,3 C 12,2 C 10,0 C 75 % 0 lf 1010,2 hPa 0,0 l/m 0 min 0 min 2 W/m 4,2 km/h (1 Bft) 93,62 %
16.09.2017 20:00 14,3 C 12,2 C 10,0 C 75 % 0 lf 1010,2 hPa 0,0 l/m 0 min 0 min 2 W/m 4,2 km/h (1 Bft) 93,88 %
16.09.2017 20:02 14,2 C 12,2 C 9,4 C 75 % 0 lf 1010,2 hPa 0,0 l/m 0 min 0 min 0 W/m 4,2 km/h (1 Bft) 89,36 %
16.09.2017 20:04 14,2 C 11,7 C 9,4 C 75 % 0 lf 1010,2 hPa 0,0 l/m 0 min 0 min 0 W/m 8,4 km/h (2 Bft) 89,36 %
16.09.2017 20:06 14,2 C 11,7 C 9,4 C 75 % 0 lf 1010,2 hPa 0,0 l/m 0 min 0 min 0 W/m 6,3 km/h (2 Bft) 93,48 %
16.09.2017 20:08 14,1 C 11,7 C 9,4 C 76 % 0 lf 1010,3 hPa 0,0 l/m 0 min 0 min 0 W/m 6,3 km/h (2 Bft) 91,49 %
16.09.2017 20:10 14,0 C 11,7 C 9,4 C 76 % 0 lf 1010,3 hPa 0,0 l/m 0 min 0 min 0 W/m 8,4 km/h (2 Bft) 93,62 %
16.09.2017 20:12 13,9 C 11,7 C 9,4 C 76 % 0 lf 1010,4 hPa 0,0 l/m 0 min 0 min 2 W/m 6,3 km/h (2 Bft) 93,62 %
16.09.2017 20:14 13,8 C 11,7 C 9,4 C 76 % 0 lf 1010,4 hPa 0,0 l/m 0 min 0 min 5 W/m 6,3 km/h (2 Bft) 93,62 %
16.09.2017 20:16 13,7 C 11,7 C 9,4 C 77 % 0 lf 1010,4 hPa 0,0 l/m 0 min 0 min 5 W/m 6,3 km/h (2 Bft) 93,62 %
16.09.2017 20:18 13,7 C 11,7 C 10,0 C 77 % 0 lf 1010,5 hPa 0,0 l/m 0 min 0 min 0 W/m 8,4 km/h (2 Bft) 91,30 %
16.09.2017 20:20 13,6 C 11,7 C 9,4 C 77 % 0 lf 1010,5 hPa 0,0 l/m 0 min 0 min 0 W/m 6,3 km/h (2 Bft) 93,62 %
16.09.2017 20:22 13,5 C 11,7 C 9,4 C 77 % 0 lf 1010,5 hPa 0,0 l/m 0 min 0 min 0 W/m 6,3 km/h (2 Bft) 91,49 %
16.09.2017 20:24 13,4 C 11,7 C 9,4 C 78 % 0 lf 1010,5 hPa 0,0 l/m 0 min 0 min 0 W/m 4,2 km/h (1 Bft) 93,62 %
16.09.2017 20:26 13,4 C 11,7 C 9,4 C 78 % 0 lf 1010,6 hPa 0,0 l/m 0 min 0 min 0 W/m 4,2 km/h (1 Bft) 89,36 %
16.09.2017 20:28 13,3 C 11,7 C 9,4 C 78 % 0 lf 1010,6 hPa 0,0 l/m 0 min 0 min 0 W/m 4,2 km/h (1 Bft) 93,62 %
16.09.2017 20:30 13,2 C 11,7 C 9,4 C 78 % 0 lf 1010,7 hPa 0,0 l/m 0 min 0 min 0 W/m 8,4 km/h (2 Bft) 91,30 %
16.09.2017 20:32 13,2 C 11,7 C 9,4 C 78 % 0 lf 1010,7 hPa 0,0 l/m 0 min 0 min 0 W/m 8,4 km/h (2 Bft) 93,62 %
16.09.2017 20:34 13,1 C 11,7 C 10,0 C 79 % 0 lf 1010,7 hPa 0,0 l/m 0 min 0 min 0 W/m 14,6 km/h (3 Bft) 93,62 %
16.09.2017 20:36 13,0 C 11,7 C 10,0 C 79 % 0 lf 1010,7 hPa 0,0 l/m 0 min 0 min 0 W/m 10,5 km/h (2 Bft) 89,36 %
16.09.2017 20:38 12,9 C 11,7 C 10,0 C 79 % 0 lf 1010,7 hPa 0,0 l/m 0 min 0 min 0 W/m 10,5 km/h (2 Bft) 91,49 %
16.09.2017 20:40 12,9 C 11,7 C 10,0 C 79 % 0 lf 1010,8 hPa 0,0 l/m 0 min 0 min 0 W/m 10,5 km/h (2 Bft) 93,48 %
16.09.2017 20:42 12,8 C 11,7 C 10,6 C 79 % 0 lf 1010,8 hPa 0,0 l/m 0 min 0 min 0 W/m 12,6 km/h (3 Bft) 91,49 %
16.09.2017 20:44 12,7 C 11,7 C 10,6 C 80 % 0 lf 1010,8 hPa 0,0 l/m 0 min 0 min 0 W/m 8,4 km/h (2 Bft) 95,74 %
16.09.2017 20:46 12,7 C 11,7 C 10,6 C 80 % 0 lf 1010,9 hPa 0,0 l/m 0 min 0 min 0 W/m 8,4 km/h (2 Bft) 93,62 %
16.09.2017 20:48 12,6 C 11,7 C 10,0 C 80 % 0 lf 1010,8 hPa 0,0 l/m 0 min 0 min 0 W/m 8,4 km/h (2 Bft) 97,87 %
16.09.2017 20:50 12,6 C 11,7 C 10,0 C 80 % 0 lf 1010,9 hPa 0,0 l/m 0 min 0 min 0 W/m 8,4 km/h (2 Bft) 95,74 %
16.09.2017 20:52 12,5 C 11,7 C 10,0 C 80 % 0 lf 1010,9 hPa 0,0 l/m 0 min 0 min 0 W/m 10,5 km/h (2 Bft) 95,65 %
16.09.2017 20:54 12,4 C 11,1 C 10,0 C 80 % 0 lf 1011,0 hPa 0,0 l/m 0 min 0 min 0 W/m 6,3 km/h (2 Bft) 91,49 %
16.09.2017 20:56 12,4 C 11,1 C 10,0 C 81 % 0 lf 1011,0 hPa 0,0 l/m 0 min 0 min 0 W/m 10,5 km/h (2 Bft) 97,87 %
16.09.2017 20:58 12,3 C 11,1 C 10,0 C 81 % 0 lf 1011,0 hPa 0,0 l/m 0 min 0 min 0 W/m 8,4 km/h (2 Bft) 97,87 %
16.09.2017 21:00 12,3 C 11,1 C 10,0 C 81 % 0 lf 1011,0 hPa 0,0 l/m 0 min 0 min 0 W/m 8,4 km/h (2 Bft) 100,00 %
16.09.2017 21:02 12,3 C 11,1 C 9,4 C 81 % 0 lf 1011,0 hPa 0,0 l/m 0 min 0 min 0 W/m 6,3 km/h (2 Bft) 97,87 %
16.09.2017 21:04 12,2 C 11,1 C 9,4 C 81 % 0 lf 1010,9 hPa 0,0 l/m 0 min 0 min 0 W/m 6,3 km/h (2 Bft) 100,00 %
16.09.2017 21:06 12,2 C 10,6 C 9,4 C 81 % 0 lf 1010,9 hPa 0,0 l/m 0 min 0 min 0 W/m 6,3 km/h (2 Bft) 100,00 %
16.09.2017 21:08 12,2 C 10,6 C 9,4 C 81 % 0 lf 1011,0 hPa 0,0 l/m 0 min 0 min 0 W/m 6,3 km/h (2 Bft) 100,00 %
16.09.2017 21:10 12,1 C 10,6 C 9,4 C 81 % 0 lf 1011,0 hPa 0,0 l/m 0 min 0 min 0 W/m 6,3 km/h (2 Bft) 97,87 %
16.09.2017 21:12 12,1 C 10,6 C 8,9 C 81 % 0 lf 1010,9 hPa 0,0 l/m 0 min 0 min 0 W/m 6,3 km/h (2 Bft) 95,74 %
16.09.2017 21:14 12,0 C 10,6 C 8,9 C 81 % 0 lf 1010,9 hPa 0,0 l/m 0 min 0 min 0 W/m 6,3 km/h (2 Bft) 100,00 %
16.09.2017 21:16 12,0 C 10,6 C 8,9 C 81 % 0 lf 1011,0 hPa 0,0 l/m 0 min 0 min 0 W/m 6,3 km/h (2 Bft) 100,00 %
16.09.2017 21:18 11,9 C 10,6 C 8,9 C 81 % 0 lf 1010,9 hPa 0,0 l/m 0 min 0 min 0 W/m 6,3 km/h (2 Bft) 100,00 %
16.09.2017 21:20 11,9 C 10,6 C 8,9 C 81 % 0 lf 1010,9 hPa 0,0 l/m 0 min 0 min 5 W/m 8,4 km/h (2 Bft) 95,74 %
16.09.2017 21:22 11,9 C 10,6 C 8,9 C 81 % 0 lf 1010,9 hPa 0,0 l/m 0 min 0 min 0 W/m 8,4 km/h (2 Bft) 100,00 %
16.09.2017 21:24 11,8 C 10,0 C 8,9 C 81 % 0 lf 1011,0 hPa 0,0 l/m 0 min 0 min 5 W/m 8,4 km/h (2 Bft) 97,87 %
16.09.2017 21:26 11,8 C 10,0 C 8,9 C 82 % 0 lf 1011,0 hPa 0,0 l/m 0 min 0 min 0 W/m 6,3 km/h (2 Bft) 100,00 %
16.09.2017 21:28 11,7 C 10,0 C 8,9 C 82 % 0 lf 1010,9 hPa 0,0 l/m 0 min 0 min 0 W/m 6,3 km/h (2 Bft) 100,00 %
16.09.2017 21:30 11,7 C 10,0 C 8,3 C 82 % 0 lf 1011,0 hPa 0,0 l/m 0 min 0 min 0 W/m 6,3 km/h (2 Bft) 95,74 %
16.09.2017 21:32 11,6 C 10,0 C 8,3 C 82 % 0 lf 1011,1 hPa 0,0 l/m 0 min 0 min 0 W/m 4,2 km/h (1 Bft) 95,74 %
16.09.2017 21:34 11,6 C 10,0 C 8,3 C 82 % 0 lf 1011,1 hPa 0,0 l/m 0 min 0 min 0 W/m 6,3 km/h (2 Bft) 100,00 %
16.09.2017 21:36 11,6 C 10,0 C 8,3 C 82 % 0 lf 1011,1 hPa 0,0 l/m 0 min 0 min 0 W/m 6,3 km/h (2 Bft) 100,00 %
16.09.2017 21:38 11,5 C 10,0 C 8,3 C 82 % 0 lf 1011,1 hPa 0,0 l/m 0 min 0 min 0 W/m 6,3 km/h (2 Bft) 100,00 %
16.09.2017 21:40 11,4 C 10,0 C 8,3 C 82 % 0 lf 1011,1 hPa 0,0 l/m 0 min 0 min 0 W/m 6,3 km/h (2 Bft) 100,00 %
16.09.2017 21:42 11,4 C 10,0 C 8,3 C 82 % 0 lf 1011,1 hPa 0,0 l/m 0 min 0 min 0 W/m 4,2 km/h (1 Bft) 100,00 %
16.09.2017 21:44 11,3 C 10,0 C 8,3 C 83 % 0 lf 1011,1 hPa 0,0 l/m 0 min 0 min 0 W/m 4,2 km/h (1 Bft) 97,87 %
16.09.2017 21:46 11,3 C 10,0 C 8,3 C 83 % 0 lf 1011,2 hPa 0,0 l/m 0 min 0 min 0 W/m 2,1 km/h (1 Bft) 97,87 %
16.09.2017 21:48 11,3 C 9,4 C 7,8 C 83 % 0 lf 1011,1 hPa 0,0 l/m 0 min 0 min 0 W/m 4,2 km/h (1 Bft) 100,00 %
16.09.2017 21:50 11,2 C 9,4 C 7,8 C 83 % 0 lf 1011,2 hPa 0,0 l/m 0 min 0 min 0 W/m 4,2 km/h (1 Bft) 100,00 %
16.09.2017 21:52 11,2 C 9,4 C 7,8 C 83 % 0 lf 1011,1 hPa 0,0 l/m 0 min 0 min 4 W/m 2,1 km/h (1 Bft) 97,87 %
16.09.2017 21:54 11,1 C 9,4 C 7,8 C 83 % 0 lf 1011,1 hPa 0,0 l/m 0 min 0 min 0 W/m 2,1 km/h (1 Bft) 100,00 %
16.09.2017 21:56 11,1 C 9,4 C 7,8 C 83 % 0 lf 1011,2 hPa 0,0 l/m 0 min 0 min 2 W/m 4,2 km/h (1 Bft) 100,00 %
16.09.2017 21:58 11,1 C 9,4 C 7,8 C 83 % 0 lf 1011,2 hPa 0,0 l/m 0 min 0 min 5 W/m 4,2 km/h (1 Bft) 100,00 %
16.09.2017 22:00 11,0 C 9,4 C 7,8 C 83 % 0 lf 1011,3 hPa 0,0 l/m 0 min 0 min 0 W/m 4,2 km/h (1 Bft) 97,87 %
16.09.2017 22:02 10,9 C 9,4 C 7,8 C 83 % 0 lf 1011,2 hPa 0,0 l/m 0 min 0 min 1 W/m 2,1 km/h (1 Bft) 97,83 %
16.09.2017 22:04 10,9 C 9,4 C 7,8 C 84 % 0 lf 1011,2 hPa 0,0 l/m 0 min 0 min 4 W/m 2,1 km/h (1 Bft) 100,00 %
16.09.2017 22:06 10,8 C 9,4 C 7,8 C 84 % 0 lf 1011,3 hPa 0,0 l/m 0 min 0 min 3 W/m 4,2 km/h (1 Bft) 97,87 %
16.09.2017 22:08 10,8 C 9,4 C 7,8 C 84 % 0 lf 1011,2 hPa 0,0 l/m 0 min 0 min 5 W/m 4,2 km/h (1 Bft) 97,87 %
16.09.2017 22:10 10,8 C 9,4 C 7,8 C 84 % 0 lf 1011,2 hPa 0,0 l/m 0 min 0 min 5 W/m 4,2 km/h (1 Bft) 97,87 %
16.09.2017 22:12 10,8 C 9,4 C 7,8 C 84 % 0 lf 1011,2 hPa 0,0 l/m 0 min 0 min 5 W/m 6,3 km/h (2 Bft) 97,87 %
16.09.2017 22:14 10,7 C 9,4 C 7,8 C 84 % 0 lf 1011,2 hPa 0,0 l/m 0 min 0 min 5 W/m 4,2 km/h (1 Bft) 97,83 %
16.09.2017 22:16 10,7 C 9,4 C 7,8 C 85 % 0 lf 1011,2 hPa 0,0 l/m 0 min 0 min 0 W/m 6,3 km/h (2 Bft) 97,87 %
16.09.2017 22:18 10,7 C 9,4 C 7,8 C 85 % 0 lf 1011,2 hPa 0,0 l/m 0 min 0 min 2 W/m 6,3 km/h (2 Bft) 97,87 %
16.09.2017 22:20 10,6 C 9,4 C 7,8 C 85 % 0 lf 1011,2 hPa 0,0 l/m 0 min 0 min 2 W/m 6,3 km/h (2 Bft) 97,87 %
16.09.2017 22:22 10,6 C 9,4 C 7,8 C 85 % 0 lf 1011,2 hPa 0,0 l/m 0 min 0 min 5 W/m 4,2 km/h (1 Bft) 95,74 %
16.09.2017 22:24 10,5 C 9,4 C 7,8 C 86 % 0 lf 1011,2 hPa 0,0 l/m 0 min 0 min 5 W/m 4,2 km/h (1 Bft) 95,74 %
16.09.2017 22:26 10,5 C 9,4 C 7,8 C 86 % 0 lf 1011,2 hPa 0,0 l/m 0 min 0 min 3 W/m 4,2 km/h (1 Bft) 95,65 %
16.09.2017 22:28 10,4 C 9,4 C 7,8 C 86 % 0 lf 1011,2 hPa 0,0 l/m 0 min 0 min 1 W/m 8,4 km/h (2 Bft) 91,49 %
16.09.2017 22:30 10,4 C 9,4 C 7,8 C 86 % 0 lf 1011,2 hPa 0,0 l/m 0 min 0 min 4 W/m 4,2 km/h (1 Bft) 93,62 %
16.09.2017 22:32 10,4 C 9,4 C 7,8 C 86 % 0 lf 1011,2 hPa 0,0 l/m 0 min 0 min 2 W/m 2,1 km/h (1 Bft) 95,74 %
16.09.2017 22:34 10,4 C 8,9 C 7,8 C 86 % 0 lf 1011,2 hPa 0,0 l/m 0 min 0 min 1 W/m 2,1 km/h (1 Bft) 93,62 %
16.09.2017 22:36 10,3 C 8,9 C 7,8 C 86 % 0 lf 1011,2 hPa 0,0 l/m 0 min 0 min 4 W/m 2,1 km/h (1 Bft) 95,74 %
16.09.2017 22:38 10,3 C 9,4 C 7,8 C 86 % 0 lf 1011,2 hPa 0,0 l/m 0 min 0 min 0 W/m 6,3 km/h (2 Bft) 95,65 %
16.09.2017 22:40 10,3 C 9,4 C 7,8 C 87 % 0 lf 1011,2 hPa 0,0 l/m 0 min 0 min 4 W/m 2,1 km/h (1 Bft) 93,62 %
16.09.2017 22:42 10,3 C 9,4 C 7,8 C 87 % 0 lf 1011,3 hPa 0,0 l/m 0 min 0 min 0 W/m 12,6 km/h (3 Bft) 93,62 %
16.09.2017 22:44 10,2 C 9,4 C 8,3 C 87 % 0 lf 1011,3 hPa 0,0 l/m 0 min 0 min 0 W/m 6,3 km/h (2 Bft) 93,62 %
16.09.2017 22:46 10,2 C 9,4 C 8,3 C 87 % 0 lf 1011,3 hPa 0,0 l/m 0 min 0 min 0 W/m 2,1 km/h (1 Bft) 91,49 %
16.09.2017 22:48 10,2 C 9,4 C 8,3 C 88 % 0 lf 1011,3 hPa 0,0 l/m 0 min 0 min 0 W/m 2,1 km/h (1 Bft) 95,74 %
16.09.2017 22:50 10,2 C 9,4 C 8,3 C 88 % 0 lf 1011,3 hPa 0,0 l/m 0 min 0 min 0 W/m 4,2 km/h (1 Bft) 95,65 %
16.09.2017 22:52 10,2 C 9,4 C 8,3 C 88 % 0 lf 1011,3 hPa 0,0 l/m 0 min 0 min 0 W/m 4,2 km/h (1 Bft) 93,62 %
16.09.2017 22:54 10,2 C 9,4 C 7,8 C 88 % 0 lf 1011,3 hPa 0,0 l/m 0 min 0 min 0 W/m 0,0 km/h (0 Bft) 93,62 %
16.09.2017 22:56 10,2 C 9,4 C 7,8 C 88 % 0 lf 1011,3 hPa 0,0 l/m 0 min 0 min 0 W/m 0,0 km/h (0 Bft) 95,74 %
16.09.2017 22:58 10,2 C 8,9 C 7,8 C 88 % 0 lf 1011,3 hPa 0,0 l/m 0 min 0 min 0 W/m 2,1 km/h (1 Bft) 95,74 %
16.09.2017 23:00 10,1 C 8,9 C 7,8 C 88 % 0 lf 1011,3 hPa 0,0 l/m 0 min 0 min 0 W/m 4,2 km/h (1 Bft) 95,65 %
16.09.2017 23:02 10,1 C 8,9 C 7,8 C 88 % 0 lf 1011,3 hPa 0,0 l/m 0 min 0 min 0 W/m 4,2 km/h (1 Bft) 91,49 %
16.09.2017 23:04 10,1 C 9,4 C 7,8 C 88 % 0 lf 1011,3 hPa 0,0 l/m 0 min 0 min 0 W/m 0,0 km/h (0 Bft) 95,74 %
16.09.2017 23:06 10,1 C 9,4 C 7,8 C 88 % 0 lf 1011,3 hPa 0,0 l/m 0 min 0 min 0 W/m 0,0 km/h (0 Bft) 95,74 %
16.09.2017 23:08 10,1 C 9,4 C 7,8 C 89 % 0 lf 1011,3 hPa 0,0 l/m 0 min 0 min 0 W/m 0,0 km/h (0 Bft) 93,62 %
16.09.2017 23:10 10,1 C 9,4 C 7,8 C 89 % 0 lf 1011,4 hPa 0,0 l/m 0 min 0 min 0 W/m 0,0 km/h (0 Bft) 95,74 %
16.09.2017 23:12 10,1 C 8,9 C 7,8 C 89 % 0 lf 1011,4 hPa 0,0 l/m 0 min 0 min 0 W/m 0,0 km/h (0 Bft) 93,48 %
16.09.2017 23:14 10,1 C 8,9 C 7,8 C 89 % 0 lf 1011,4 hPa 0,0 l/m 0 min 0 min 4 W/m 0,0 km/h (0 Bft) 93,62 %
16.09.2017 23:16 10,1 C 8,9 C 7,8 C 89 % 0 lf 1011,4 hPa 0,0 l/m 0 min 0 min 0 W/m 0,0 km/h (0 Bft) 93,62 %
16.09.2017 23:18 10,1 C 9,4 C 7,8 C 89 % 0 lf 1011,4 hPa 0,0 l/m 0 min 0 min 0 W/m 0,0 km/h (0 Bft) 97,87 %
16.09.2017 23:20 10,1 C 9,4 C 7,8 C 89 % 0 lf 1011,4 hPa 0,0 l/m 0 min 0 min 0 W/m 0,0 km/h (0 Bft) 100,00 %
16.09.2017 23:22 10,1 C 9,4 C 8,3 C 89 % 0 lf 1011,4 hPa 0,0 l/m 0 min 0 min 0 W/m 0,0 km/h (0 Bft) 97,87 %
16.09.2017 23:24 10,0 C 9,4 C 8,3 C 89 % 0 lf 1011,4 hPa 0,0 l/m 0 min 0 min 0 W/m 0,0 km/h (0 Bft) 100,00 %
16.09.2017 23:26 10,0 C 9,4 C 8,3 C 89 % 0 lf 1011,4 hPa 0,0 l/m 0 min 0 min 0 W/m 0,0 km/h (0 Bft) 97,87 %
16.09.2017 23:28 10,0 C 9,4 C 8,3 C 89 % 0 lf 1011,4 hPa 0,0 l/m 0 min 0 min 0 W/m 0,0 km/h (0 Bft) 97,87 %
16.09.2017 23:30 10,0 C 9,4 C 8,3 C 89 % 0 lf 1011,4 hPa 0,0 l/m 0 min 0 min 0 W/m 0,0 km/h (0 Bft) 100,00 %
16.09.2017 23:32 10,0 C 9,4 C 8,3 C 89 % 0 lf 1011,4 hPa 0,0 l/m 0 min 0 min 0 W/m 0,0 km/h (0 Bft) 97,87 %
16.09.2017 23:34 10,0 C 9,4 C 8,3 C 89 % 0 lf 1011,4 hPa 0,0 l/m 0 min 0 min 0 W/m 0,0 km/h (0 Bft) 100,00 %
16.09.2017 23:36 9,9 C 9,4 C 8,3 C 89 % 0 lf 1011,5 hPa 0,0 l/m 0 min 0 min 0 W/m 0,0 km/h (0 Bft) 100,00 %
16.09.2017 23:38 9,9 C 9,4 C 8,3 C 89 % 0 lf 1011,5 hPa 0,0 l/m 0 min 0 min 5 W/m 0,0 km/h (0 Bft) 100,00 %
16.09.2017 23:40 9,9 C 9,4 C 8,3 C 90 % 0 lf 1011,5 hPa 0,0 l/m 0 min 0 min 0 W/m 2,1 km/h (1 Bft) 100,00 %
16.09.2017 23:42 9,9 C 9,4 C 8,3 C 90 % 0 lf 1011,5 hPa 0,0 l/m 0 min 0 min 0 W/m 6,3 km/h (2 Bft) 100,00 %
16.09.2017 23:44 9,9 C 10,0 C 8,3 C 90 % 0 lf 1011,5 hPa 0,0 l/m 0 min 0 min 0 W/m 4,2 km/h (1 Bft) 97,87 %
16.09.2017 23:46 9,9 C 10,0 C 8,3 C 90 % 0 lf 1011,4 hPa 0,0 l/m 0 min 0 min 0 W/m 4,2 km/h (1 Bft) 97,87 %
16.09.2017 23:48 9,9 C 10,0 C 8,3 C 90 % 0 lf 1011,5 hPa 0,0 l/m 0 min 0 min 0 W/m 4,2 km/h (1 Bft) 97,83 %
16.09.2017 23:50 9,9 C 10,0 C 8,3 C 90 % 0 lf 1011,5 hPa 0,0 l/m 0 min 0 min 0 W/m 6,3 km/h (2 Bft) 97,87 %
16.09.2017 23:52 9,9 C 10,0 C 8,3 C 90 % 0 lf 1011,5 hPa 0,0 l/m 0 min 0 min 5 W/m 4,2 km/h (1 Bft) 97,87 %
16.09.2017 23:54 9,9 C 10,0 C 8,3 C 90 % 0 lf 1011,5 hPa 0,0 l/m 0 min 0 min 0 W/m 0,0 km/h (0 Bft) 97,87 %
16.09.2017 23:56 9,9 C 10,0 C 8,3 C 90 % 0 lf 1011,6 hPa 0,0 l/m 0 min 0 min 0 W/m 0,0 km/h (0 Bft) 100,00 %
16.09.2017 23:58 9,9 C 10,0 C 8,3 C 90 % 0 lf 1011,6 hPa 0,0 l/m 0 min 0 min 0 W/m 0,0 km/h (0 Bft) 95,74 %
_ Min-Zeit 07:10 05:36 06:40 15:52 00:00 16:36 - - - - 22:54 17:08
Minimum _ 7,6 C 7,2 C 5,6 C 60 % 0 lf 1009,0 hPa - - - - 0,0 km/h (0 Bft) 86,96 %
_ Max-Zeit 16:12 11:58 11:56 08:34 07:02 23:56 05:58 08:08 00:00 13:04 15:00 00:08
Maximum _ 18,3 C 27,8 C 22,8 C 97 % 2 lf 1011,6 hPa 0,2 l/m 4 min 0 min 889 W/m 29,3 km/h
W (5 Bft)
100,00 %
Durchschnitt _ 12,3 C 13,9 C 11,0 C 82 % 0 lf 1009,9 hPa #0,2 l/m #10:38 h #0 min. 293 W/m 11,3 km/h (2 Bft) 96,43 %
© 2017 W. Hausmann